Laatste waarneming: 17:35
Temperatuur:17,6°C
Dauwpunt:12,6°C
Rel. vocht:72,0%
Natte-bol:15,1°C
Wind (gem. 10 min.):3,5 m/s
Wind (max. 10 min.):1.7E+308 m/s
Windrichting:296°
Neerslagsom:0,0 mm
Neerslagintensiteit:0,0 mm/u
Luchtdruk:1015,7 hPa
Straling:392,0 W/m2
 
Maximumtemp.:18,7°C (16:34)
Minimumtemp.:11,9°C (06:22)
Hoogste windstoot:- m/s (16:29)


Bekijk de verwachting.

Bekijk de grafieken.
Bekijk het weekoverzicht.
Bekijk het maandoverzicht.
Bekijk het jaaroverzicht.
Dagtabel
Tijd Temp. Dauwp. Natte-bol Rel. Hum. Windsnelh. Windricht. Windstoot Neerslag Straling Luchtdruk
 
17:35 17,6 12,6 15,1 72,0 3,5 296 - 0,0 392 1.015,7
17:34 17,6 12,6 15,1 72,0 3,5 305 - 0,0 394 1.015,7
17:33 17,6 12,6 15,0 72,0 3,4 301 - 0,0 400 1.015,6
17:32 17,6 12,7 15,1 72,8 3,5 308 - 0,0 401 1.015,7
17:31 17,6 12,7 15,2 73,0 3,6 305 - 0,0 400 1.015,7
17:30 17,6 12,7 15,1 73,0 3,6 299 - 0,0 400 1.015,7
17:29 17,6 12,7 15,1 73,0 3,6 305 - 0,0 402 1.015,7
17:28 17,6 12,8 15,2 73,0 3,6 292 - 0,0 404 1.015,7
17:27 17,6 12,8 15,2 73,0 3,6 288 - 0,0 404 1.015,7
17:26 17,6 12,8 15,2 73,0 3,7 305 - 0,0 407 1.015,7
17:25 17,6 12,8 15,2 73,1 3,7 305 - 0,0 410 1.015,7
17:24 17,6 13,0 15,3 74,0 3,7 298 - 0,0 413 1.015,7
17:23 17,6 13,0 15,3 74,0 3,6 292 - 0,0 416 1.015,7
17:22 17,6 13,1 15,4 74,5 3,4 307 - 0,0 421 1.015,7
17:21 17,6 13,2 15,5 75,0 3,2 306 - 0,0 420 1.015,7
17:20 17,6 13,2 15,5 75,0 3,2 300 - 0,0 421 1.015,7
17:19 17,6 13,2 15,5 75,1 3,2 316 - 0,0 423 1.015,7
17:18 17,7 13,4 15,7 76,0 3,2 312 - 0,0 426 1.015,8
17:17 17,7 13,4 15,7 76,0 3,2 291 - 0,0 430 1.015,8
17:16 17,7 13,4 15,7 76,0 3,1 309 - 0,0 429 1.015,8
17:15 17,7 13,4 15,7 76,0 3,1 299 - 0,0 433 1.015,8
17:14 17,7 13,4 15,7 76,0 3,1 303 - 0,0 431 1.015,8
17:13 17,7 13,4 15,7 76,0 3,2 295 - 0,0 429 1.015,8
17:12 17,7 13,4 15,7 76,0 3,3 312 - 0,0 432 1.015,8
17:11 17,6 13,4 15,6 76,0 3,4 306 - 0,0 438 1.015,8
17:10 17,6 13,4 15,6 76,0 3,4 301 - 0,0 442 1.015,8
17:09 17,6 13,4 15,6 76,0 3,4 305 - 0,0 448 1.015,8
17:08 17,6 13,4 15,6 76,0 3,5 304 - 0,0 448 1.015,9
17:07 17,6 13,4 15,6 76,0 3,8 295 - 0,0 449 1.015,9
17:06 17,6 13,4 15,6 76,0 3,8 297 - 0,0 450 1.015,9
17:05 17,6 13,4 15,6 76,4 3,8 298 - 0,0 450 1.015,9
17:04 17,6 13,5 15,7 77,0 3,9 300 - 0,0 452 1.015,9
17:03 17,6 13,5 15,7 77,0 3,9 296 - 0,0 453 1.015,9
17:02 17,6 13,5 15,7 77,0 4,0 303 - 0,0 456 1.015,9
17:01 17,6 13,5 15,7 77,0 4,0 299 - 0,0 456 1.015,9
17:00 17,5 13,6 15,7 77,3 4,1 299 - 0,0 463 1.015,9
 
16:59 17,5 13,7 15,8 78,0 4,2 300 - 0,0 467 1.015,9
16:58 17,5 13,7 15,8 78,0 4,2 299 - 0,0 469 1.015,9
16:57 17,5 13,7 15,8 78,0 4,4 296 - 0,0 470 1.015,9
16:56 17,5 13,7 15,8 78,0 4,5 292 - 0,0 475 1.015,9
16:55 17,5 13,7 15,8 78,0 4,5 296 - 0,0 478 1.015,9
16:54 17,5 13,7 15,8 78,3 4,6 298 - 0,0 481 1.015,9
16:53 17,6 13,9 16,0 79,0 4,7 297 - 0,0 488 1.015,9
16:52 17,6 13,9 16,0 79,0 4,6 297 - 0,0 489 1.015,9
16:51 17,6 13,9 16,0 79,0 4,4 299 - 0,0 491 1.016,0
16:50 17,6 13,9 16,0 79,0 4,4 288 - 0,0 487 1.016,0
16:49 17,6 13,9 16,0 79,0 4,4 298 - 0,0 494 1.016,0
16:48 17,6 14,0 16,0 79,0 4,3 305 - 0,0 498 1.016,0
16:47 17,6 14,0 16,0 79,0 4,2 301 - 0,0 497 1.016,0
16:46 17,7 14,0 16,1 79,0 4,1 294 - 0,0 504 1.016,0
16:45 17,7 13,9 16,0 78,3 4,0 293 - 0,0 509 1.016,0
16:44 17,8 13,9 16,1 78,0 4,1 295 - 0,0 514 1.016,0
16:43 17,9 13,9 16,0 77,0 4,4 296 - 0,0 520 1.015,9
16:42 18,0 13,9 16,1 76,7 4,7 288 - 0,0 517 1.015,9
16:41 18,2 13,9 16,1 75,5 5,0 284 - 0,0 509 1.015,9
16:40 18,4 13,9 16,2 75,0 5,1 282 - 0,0 514 1.015,9
16:39 18,5 13,9 16,3 74,3 5,3 286 - 0,0 512 1.015,9
16:38 18,7 13,8 16,2 73,1 5,6 288 - 0,0 522 1.015,9
16:37 18,7 13,8 16,2 73,0 5,7 275 - 0,0 524 1.015,9
16:36 18,7 13,8 16,2 73,0 5,9 265 - 0,0 522 1.016,0
16:35 18,7 13,8 16,2 73,0 5,9 263 - 0,0 512 1.016,0
16:34 18,7 13,9 16,3 73,7 5,9 272 - 0,0 517 1.016,0
16:33 18,6 14,0 16,3 74,0 5,8 253 - 0,0 508 1.016,0
16:32 18,6 13,9 16,3 74,0 5,9 257 - 0,0 501 1.016,0
16:31 18,5 13,9 16,2 74,0 6,2 265 - 0,0 499 1.016,1
16:30 18,5 13,9 16,3 74,4 6,4 253 - 0,0 477 1.016,1
16:29 18,5 14,0 16,3 75,0 6,4 256 - 0,0 465 1.016,1
16:28 18,4 14,0 16,3 75,0 6,3 261 - 0,0 470 1.016,1
16:27 18,4 14,0 16,3 75,0 6,2 238 - 0,0 482 1.016,1
16:26 18,5 14,0 16,3 75,0 5,9 260 - 0,0 500 1.016,1
16:25 18,5 14,0 16,3 74,6 5,7 267 - 0,0 522 1.016,1
16:24 18,5 13,9 16,2 74,0 5,4 269 - 0,0 539 1.016,1
16:23 18,6 13,9 16,3 74,0 5,5 263 - 0,0 559 1.016,1
16:22 18,6 14,0 16,3 74,0 5,8 255 - 0,0 552 1.016,1
16:21 18,6 14,0 16,3 74,0 6,0 256 - 0,0 526 1.016,1
16:20 18,6 14,0 16,3 74,3 6,1 255 - 0,0 495 1.016,1
16:19 18,5 14,1 16,4 75,0 6,0 253 - 0,0 516 1.016,2
16:18 18,5 14,0 16,3 75,0 5,9 257 - 0,0 538 1.016,2
16:17 18,4 14,0 16,3 75,0 5,8 271 - 0,0 561 1.016,3
16:16 18,4 13,9 16,2 75,0 5,7 251 - 0,0 563 1.016,3
16:15 18,4 13,9 16,2 75,0 5,5 257 - 0,0 561 1.016,3
16:14 18,4 14,0 16,3 75,0 5,3 263 - 0,0 532 1.016,3
16:13 18,4 14,0 16,3 75,0 5,3 244 - 0,0 508 1.016,3
16:12 18,4 14,0 16,3 75,0 5,1 261 - 0,0 482 1.016,3
16:11 18,5 14,0 16,3 75,0 5,0 264 - 0,0 425 1.016,3
16:10 18,4 14,0 16,3 75,0 4,9 265 - 0,0 383 1.016,3
16:09 18,4 14,0 16,3 75,0 4,9 257 - 0,0 382 1.016,3
16:08 18,4 14,0 16,3 75,0 5,0 261 - 0,0 380 1.016,3
16:07 18,4 14,0 16,3 75,0 5,1 244 - 0,0 390 1.016,4
16:06 18,5 14,0 16,3 75,0 5,2 255 - 0,0 414 1.016,3
16:05 18,5 14,1 16,4 75,0 5,2 229 - 0,0 413 1.016,3
16:04 18,6 14,1 16,4 75,0 5,2 243 - 0,0 403 1.016,3
16:03 18,6 14,1 16,4 75,0 5,3 251 - 0,0 374 1.016,3
16:02 18,6 14,1 16,4 75,0 5,4 265 - 0,0 363 1.016,3
16:01 18,5 14,0 16,3 75,0 5,6 242 - 0,0 366 1.016,3
16:00 18,5 14,1 16,4 75,5 5,7 257 - 0,0 367 1.016,3
 
15:59 18,4 14,2 16,4 76,0 5,6 238 - 0,0 398 1.016,3
15:58 18,4 14,2 16,4 76,0 5,4 254 - 0,0 411 1.016,3
15:57 18,4 14,2 16,4 76,0 5,3 262 - 0,0 413 1.016,3
15:56 18,4 14,2 16,4 76,0 5,1 255 - 0,0 423 1.016,4
15:55 18,4 14,1 16,4 76,0 5,0 252 - 0,0 425 1.016,4
15:54 18,4 14,1 16,4 76,0 5,0 242 - 0,0 418 1.016,4
15:53 18,4 14,1 16,4 76,0 5,1 249 - 0,0 418 1.016,4
15:52 18,4 14,2 16,4 76,0 5,1 261 - 0,0 426 1.016,4
15:51 18,5 14,0 16,3 75,1 5,2 244 - 0,0 432 1.016,4
15:50 18,5 14,1 16,4 75,0 5,3 244 - 0,0 435 1.016,3
15:49 18,6 14,2 16,4 75,0 5,3 253 - 0,0 419 1.016,3
15:48 18,6 14,2 16,5 75,0 5,4 259 - 0,0 420 1.016,4
15:47 18,6 14,2 16,5 75,0 5,5 253 - 0,0 430 1.016,4
15:46 18,6 14,1 16,4 75,0 5,2 246 - 0,0 449 1.016,4
15:45 18,6 14,1 16,4 75,0 5,0 215 - 0,0 460 1.016,4
15:44 18,6 14,1 16,4 75,0 5,0 259 - 0,0 477 1.016,4
15:43 18,6 14,1 16,4 75,0 5,3 261 - 0,0 485 1.016,4
15:42 18,5 14,1 16,4 75,0 5,3 253 - 0,0 475 1.016,4
15:41 18,5 14,2 16,4 75,7 5,4 242 - 0,0 481 1.016,4
15:40 18,5 14,1 16,3 75,2 5,4 265 - 0,0 477 1.016,4
15:39 18,5 14,0 16,3 75,0 5,3 267 - 0,0 480 1.016,4
15:38 18,5 14,1 16,3 75,0 5,1 259 - 0,0 493 1.016,4
15:37 18,5 14,1 16,4 75,4 5,0 265 - 0,0 501 1.016,4
15:36 18,5 14,1 16,4 75,5 5,0 255 - 0,0 523 1.016,4
15:35 18,5 14,1 16,3 75,0 5,0 242 - 0,0 522 1.016,5
15:34 18,5 14,2 16,5 75,9 5,0 266 - 0,0 539 1.016,5
15:33 18,5 14,2 16,4 76,0 5,1 240 - 0,0 533 1.016,5
15:32 18,4 14,2 16,4 76,0 5,2 248 - 0,0 530 1.016,5
15:31 18,4 14,1 16,4 76,0 5,4 215 - 0,0 529 1.016,4
15:30 18,3 14,2 16,4 76,6 5,4 238 - 0,0 532 1.016,4
15:29 18,3 14,2 16,4 77,0 5,4 262 - 0,0 532 1.016,5
15:28 18,2 14,2 16,4 77,0 5,2 242 - 0,0 537 1.016,5
15:27 18,2 14,2 16,3 77,0 5,2 243 - 0,0 536 1.016,5
15:26 18,2 14,1 16,3 77,0 5,1 228 - 0,0 520 1.016,5
15:25 18,1 14,1 16,3 77,0 5,0 253 - 0,0 496 1.016,5
15:24 18,1 14,1 16,3 77,6 5,0 253 - 0,0 490 1.016,6
15:23 18,0 14,2 16,3 78,0 5,1 255 - 0,0 475 1.016,6
15:22 18,0 14,2 16,3 78,0 5,2 254 - 0,0 471 1.016,6
15:21 18,0 14,2 16,3 78,0 5,1 255 - 0,0 476 1.016,6
15:20 17,9 14,1 16,2 78,0 4,9 246 - 0,0 483 1.016,6
15:19 17,9 14,1 16,2 78,0 4,7 261 - 0,0 473 1.016,6
15:18 17,9 14,1 16,2 78,0 4,6 251 - 0,0 466 1.016,6
15:17 17,9 14,0 16,2 78,0 4,6 247 - 0,0 469 1.016,6
15:16 17,9 14,0 16,2 78,0 4,7 261 - 0,0 437 1.016,6
15:15 17,8 14,0 16,1 78,0 4,6 251 - 0,0 422 1.016,7
15:14 17,9 14,0 16,2 78,0 4,6 260 - 0,0 401 1.016,7
15:13 17,9 14,0 16,1 77,5 4,6 260 - 0,0 389 1.016,7
15:12 18,0 13,9 16,1 77,0 4,6 252 - 0,0 422 1.016,7
15:11 18,0 14,0 16,2 77,0 4,6 261 - 0,0 419 1.016,7
15:10 18,0 14,0 16,2 77,0 4,6 257 - 0,0 400 1.016,6
15:09 18,0 14,0 16,2 77,0 4,5 253 - 0,0 412 1.016,7
15:08 18,1 14,0 16,2 77,0 4,5 261 - 0,0 448 1.016,7
15:07 18,1 14,1 16,3 77,0 4,5 258 - 0,0 475 1.016,7
15:06 18,2 14,1 16,3 77,0 4,5 255 - 0,0 481 1.016,7
15:05 18,2 14,1 16,3 77,0 4,5 243 - 0,0 488 1.016,8
15:04 18,2 14,1 16,3 77,0 4,6 257 - 0,0 488 1.016,8
15:03 18,2 14,2 16,4 77,0 4,7 260 - 0,0 480 1.016,7
15:02 18,2 14,2 16,3 77,0 4,8 261 - 0,0 492 1.016,7
15:01 18,2 14,2 16,3 77,0 4,9 255 - 0,0 507 1.016,7
15:00 18,2 14,2 16,4 77,0 3,7 249 - 0,0 513 1.016,7
 
14:59 18,2 14,2 16,4 77,0 3,8 350 - 0,0 528 1.016,7
14:58 18,2 14,2 16,3 77,0 4,3 267 - 0,0 565 1.016,7
14:57 18,2 14,2 16,3 77,0 5,7 247 - 0,0 599 1.016,7
14:56 18,2 14,1 16,3 77,0 5,7 254 - 0,0 619 1.016,8
14:55 18,1 14,1 16,3 77,0 5,6 240 - 0,0 619 1.016,7
14:54 18,1 14,0 16,2 77,0 5,4 251 - 0,0 643 1.016,8
14:53 18,0 14,1 16,3 77,9 5,3 251 - 0,0 647 1.016,8
14:52 17,9 14,1 16,2 78,0 5,2 265 - 0,0 644 1.016,7
14:51 17,9 14,0 16,1 78,0 5,1 254 - 0,0 631 1.016,7
14:50 17,8 14,0 16,1 78,0 4,9 264 - 0,0 635 1.016,8
14:49 17,7 13,9 16,0 78,0 4,8 236 - 0,0 638 1.016,8
14:48 17,7 13,9 16,0 78,0 4,7 257 - 0,0 675 1.016,8
14:47 17,8 13,9 16,0 78,0 4,6 226 - 0,0 669 1.016,8
14:46 17,8 14,0 16,1 78,0 4,5 244 - 0,0 648 1.016,8
14:45 17,9 14,0 16,1 78,0 4,7 268 - 0,0 641 1.016,8
14:44 17,8 14,0 16,1 78,0 4,9 263 - 0,0 617 1.016,8
14:43 17,8 14,0 16,1 78,0 5,0 259 - 0,0 608 1.016,8
14:42 17,8 14,0 16,1 78,0 5,2 233 - 0,0 589 1.016,8
14:41 17,8 14,0 16,1 78,0 5,3 251 - 0,0 572 1.016,8
14:40 17,8 13,9 16,1 78,0 5,3 246 - 0,0 550 1.016,8
14:39 17,8 13,9 16,0 78,0 5,2 221 - 0,0 538 1.016,8
14:38 17,7 13,9 16,0 78,0 5,0 253 - 0,0 550 1.016,8
14:37 17,7 13,9 16,0 78,0 5,1 251 - 0,0 510 1.016,8
14:36 17,6 13,8 15,9 78,0 5,2 234 - 0,0 292 1.016,9
14:35 17,6 13,8 15,9 78,5 5,3 241 - 0,0 292 1.016,9
14:34 17,6 13,9 16,0 79,0 5,2 244 - 0,0 292 1.016,9
14:33 17,5 13,8 15,9 78,4 5,1 223 - 0,0 323 1.016,9
14:32 17,5 13,7 15,8 78,0 4,9 262 - 0,0 502 1.016,9
14:31 17,6 13,7 15,8 78,0 4,7 229 - 0,0 540 1.017,0
14:30 17,6 13,7 15,8 78,0 4,6 281 - 0,0 465 1.017,0
14:29 17,6 13,7 15,8 78,0 4,8 233 - 0,0 253 1.017,0
14:28 17,6 13,7 15,9 78,0 5,0 267 - 0,0 231 1.016,9
14:26 17,6 13,7 15,8 78,0 5,0 249 - 0,0 202 1.017,0
14:25 17,6 13,7 15,9 78,0 5,1 258 - 0,0 222 1.017,0
14:24 17,6 13,7 15,9 78,0 5,2 253 - 0,0 257 1.017,0
14:23 17,6 13,7 15,8 78,0 5,3 246 - 0,0 287 1.017,0
14:22 17,5 13,7 15,8 78,0 5,2 244 - 0,0 287 1.016,9
14:21 17,5 13,7 15,8 78,0 5,1 255 - 0,0 271 1.016,9
14:20 17,5 13,7 15,8 78,0 4,9 251 - 0,0 250 1.017,0
14:19 17,5 13,7 15,8 78,0 4,8 257 - 0,0 242 1.017,0
14:18 17,5 13,7 15,8 78,0 4,8 251 - 0,0 244 1.017,0
14:17 17,5 13,5 15,7 77,1 4,9 248 - 0,0 244 1.017,0
14:16 17,6 13,6 15,7 77,0 5,0 256 - 0,0 242 1.017,0
14:15 17,6 13,6 15,8 77,0 5,0 261 - 0,0 237 1.017,0
14:14 17,7 13,7 15,8 77,0 5,1 240 - 0,0 230 1.017,0
14:13 17,7 13,7 15,9 77,0 5,2 259 - 0,0 223 1.017,0
14:12 17,7 13,7 15,9 77,0 5,3 244 - 0,0 215 1.017,0
14:11 17,7 13,7 15,9 77,0 5,5 244 - 0,0 223 1.017,0
14:10 17,7 13,7 15,9 77,0 5,5 261 - 0,0 248 1.017,0
14:09 17,7 13,6 15,8 77,0 5,6 232 - 0,0 269 1.016,9
14:08 17,6 13,6 15,8 77,0 5,6 235 - 0,0 217 1.016,9
14:07 17,6 13,5 15,7 77,0 5,5 255 - 0,0 211 1.016,9
14:06 17,5 13,5 15,7 77,0 5,4 251 - 0,0 211 1.016,9
14:05 17,5 13,5 15,7 77,0 5,2 251 - 0,0 219 1.016,9
14:04 17,5 13,5 15,7 77,0 5,1 251 - 0,0 232 1.016,9
14:03 17,6 13,5 15,7 77,0 5,3 244 - 0,0 225 1.017,0
14:02 17,6 13,5 15,7 77,0 5,4 244 - 0,0 242 1.017,0
14:01 17,6 13,5 15,7 77,0 5,3 254 - 0,0 275 1.017,0
14:00 17,6 13,5 15,7 77,0 5,3 242 - 0,0 287 1.017,1
 
13:59 17,6 13,5 15,7 76,8 5,4 262 - 0,0 301 1.017,1
13:58 17,6 13,3 15,6 76,0 5,5 259 - 0,0 301 1.017,1
13:57 17,6 13,3 15,6 76,0 5,5 259 - 0,0 267 1.017,1
13:56 17,6 13,4 15,6 76,0 5,5 259 - 0,0 210 1.017,0
13:55 17,7 13,4 15,7 76,0 5,6 257 - 0,0 195 1.017,0
13:54 17,7 13,5 15,7 76,0 5,6 256 - 0,0 188 1.017,0
13:53 17,8 13,5 15,7 75,8 5,5 265 - 0,0 191 1.017,1
13:52 17,8 13,4 15,7 75,0 5,4 259 - 0,0 260 1.017,0
13:51 17,9 13,4 15,7 75,0 5,2 261 - 0,0 595 1.017,0
13:50 17,9 13,5 15,8 75,0 5,2 256 - 0,0 651 1.017,1
13:49 18,0 13,4 15,8 74,2 5,3 257 - 0,0 665 1.017,1
13:48 18,2 13,5 15,9 74,0 5,5 256 - 0,0 559 1.017,1
13:47 18,3 13,6 16,0 74,0 5,6 245 - 0,0 410 1.017,2
13:46 18,4 13,7 16,1 74,0 5,7 249 - 0,0 300 1.017,2
13:45 18,4 13,7 16,1 74,0 5,7 265 - 0,0 253 1.017,1
13:44 18,4 13,7 16,1 74,0 5,7 262 - 0,0 247 1.017,1
13:43 18,4 13,7 16,1 74,0 5,5 259 - 0,0 225 1.017,2
13:42 18,4 13,7 16,1 74,0 5,0 265 - 0,0 225 1.017,2
13:41 18,4 13,7 16,1 74,0 4,5 273 - 0,0 225 1.017,2
13:40 18,4 13,7 16,1 74,0 4,2 255 - 0,0 225 1.017,2
13:39 18,4 13,7 16,1 74,0 4,4 244 - 0,0 217 1.017,1
13:38 18,4 13,7 16,1 74,0 4,6 258 - 0,0 260 1.017,2
13:37 18,4 13,7 16,1 74,0 4,7 264 - 0,0 256 1.017,1
13:36 18,4 13,7 16,1 74,0 4,9 244 - 0,0 221 1.017,1
13:35 18,4 13,7 16,1 74,0 5,1 261 - 0,0 193 1.017,2
13:34 18,4 13,7 16,1 74,0 4,9 254 - 0,0 178 1.017,2
13:33 18,4 13,7 16,1 74,0 4,5 257 - 0,0 178 1.017,2
13:32 18,4 13,7 16,1 74,0 4,1 257 - 0,0 261 1.017,2
13:31 18,4 13,7 16,1 74,0 4,1 256 - 0,0 594 1.017,2
13:30 18,4 13,7 16,1 74,0 4,1 249 - 0,0 594 1.017,2
13:29 18,4 13,7 16,1 74,0 4,1 256 - 0,0 594 1.017,2
13:28 18,4 13,7 16,1 74,0 4,0 252 - 0,0 581 1.017,2
13:27 18,3 13,7 16,0 74,0 4,1 256 - 0,0 515 1.017,2
13:26 18,3 13,7 16,0 74,0 4,4 258 - 0,0 163 1.017,2
13:25 18,3 13,7 16,0 74,0 4,6 269 - 0,0 267 1.017,3
13:24 18,3 13,7 16,0 74,0 4,7 240 - 0,0 459 1.017,3
13:23 18,3 13,6 16,0 74,0 4,8 242 - 0,0 459 1.017,3
13:22 18,2 13,6 15,9 74,0 4,7 259 - 0,0 533 1.017,3
13:21 18,2 13,6 15,9 74,0 4,6 269 - 0,0 616 1.017,3
13:20 18,2 13,5 15,9 74,0 4,5 276 - 0,0 640 1.017,3
13:19 18,2 13,5 15,9 74,0 4,6 249 - 0,0 640 1.017,4
13:18 18,1 13,5 15,9 74,0 4,8 245 - 0,0 640 1.017,4
13:17 18,1 13,5 15,8 74,0 4,7 256 - 0,0 640 1.017,3
13:16 18,1 13,5 15,8 74,0 4,5 243 - 0,0 581 1.017,4
13:15 18,1 13,4 15,8 74,0 4,6 243 - 0,0 616 1.017,3
13:14 18,1 13,4 15,8 74,0 4,9 255 - 0,0 482 1.017,3
13:13 18,1 13,4 15,8 74,0 5,2 267 - 0,0 482 1.017,3
13:12 18,0 13,4 15,8 74,0 5,3 274 - 0,0 482 1.017,4
13:11 18,0 13,4 15,7 74,0 5,2 265 - 0,0 499 1.017,4
13:10 18,0 13,4 15,7 74,0 4,8 270 - 0,0 588 1.017,4
13:09 18,0 13,4 15,7 74,0 4,0 267 - 0,0 580 1.017,4
13:08 17,9 13,3 15,7 74,0 4,0 217 - 0,0 546 1.017,4
13:07 17,9 13,3 15,6 74,0 4,3 253 - 0,0 629 1.017,4
13:06 17,9 13,3 15,6 74,0 4,7 257 - 0,0 632 1.017,4
13:05 17,9 13,3 15,6 74,0 4,6 250 - 0,0 623 1.017,4
13:04 17,9 13,2 15,6 74,0 4,7 232 - 0,0 641 1.017,4
13:03 17,9 13,1 15,5 73,4 4,7 250 - 0,0 620 1.017,4
13:02 17,8 13,1 15,5 73,3 4,8 251 - 0,0 520 1.017,4
13:01 17,8 13,2 15,5 74,0 4,7 254 - 0,0 520 1.017,4
13:00 17,8 13,2 15,5 73,8 4,7 251 - 0,0 485 1.017,4
 
12:59 17,8 13,0 15,4 73,0 4,7 253 - 0,0 448 1.017,4
12:58 17,8 13,0 15,4 73,0 4,8 250 - 0,0 534 1.017,4
12:57 17,8 13,0 15,4 73,0 4,9 257 - 0,0 568 1.017,4
12:56 17,8 13,0 15,4 73,0 4,7 274 - 0,0 671 1.017,4
12:55 17,8 12,9 15,4 73,0 4,7 238 - 0,0 671 1.017,4
12:54 17,7 12,9 15,3 73,0 4,6 257 - 0,0 672 1.017,5
12:53 17,7 12,9 15,3 73,0 4,3 253 - 0,0 664 1.017,5
12:52 17,7 12,9 15,3 73,0 4,2 256 - 0,0 571 1.017,5
12:51 17,7 12,8 15,3 73,0 4,2 256 - 0,0 544 1.017,5
12:50 17,7 12,8 15,3 73,0 4,3 265 - 0,0 587 1.017,5
12:49 17,7 12,8 15,3 73,0 4,4 245 - 0,0 606 1.017,4
12:48 17,7 12,8 15,3 73,0 4,4 236 - 0,0 610 1.017,5
12:47 17,7 12,8 15,2 73,0 4,4 265 - 0,0 605 1.017,5
12:46 17,6 12,8 15,2 73,0 4,3 244 - 0,0 603 1.017,5
12:45 17,6 12,6 15,1 72,3 4,0 263 - 0,0 602 1.017,5
12:44 17,6 12,6 15,0 72,0 3,7 225 - 0,0 594 1.017,5
12:43 17,6 12,5 15,0 72,0 3,7 254 - 0,0 599 1.017,5
12:42 17,6 12,5 15,0 72,0 3,8 251 - 0,0 598 1.017,5
12:41 17,5 12,5 15,0 72,0 3,8 265 - 0,0 615 1.017,5
12:40 17,5 12,5 15,0 72,0 3,8 257 - 0,0 620 1.017,6
12:39 17,5 12,5 14,9 72,0 3,9 265 - 0,0 624 1.017,6
12:38 17,5 12,4 14,9 72,0 3,9 254 - 0,0 620 1.017,6
12:37 17,4 12,3 14,9 71,7 4,0 254 - 0,0 613 1.017,6
12:36 17,4 12,2 14,8 71,0 4,2 244 - 0,0 619 1.017,6
12:35 17,4 12,2 14,8 71,0 4,3 247 - 0,0 625 1.017,6
12:34 17,4 12,2 14,8 71,0 4,5 220 - 0,0 547 1.017,6
12:33 17,4 12,2 14,8 71,0 4,7 253 - 0,0 627 1.017,6
12:32 17,4 12,2 14,8 71,0 4,9 251 - 0,0 610 1.017,6
12:31 17,4 12,2 14,8 71,0 4,9 254 - 0,0 592 1.017,6
12:30 17,4 12,2 14,8 71,0 4,8 260 - 0,0 592 1.017,6
12:29 17,5 12,2 14,8 71,0 4,7 269 - 0,0 597 1.017,6
12:28 17,5 12,2 14,8 71,0 4,7 234 - 0,0 604 1.017,6
12:27 17,5 12,3 14,8 71,0 4,7 247 - 0,0 590 1.017,6
12:26 17,5 12,1 14,7 70,2 4,6 255 - 0,0 566 1.017,6
12:25 17,5 12,3 14,8 70,8 4,5 238 - 0,0 561 1.017,6
12:24 17,6 12,1 14,7 70,0 4,3 255 - 0,0 530 1.017,6
12:23 17,6 12,1 14,7 70,0 4,2 257 - 0,0 583 1.017,6
12:22 17,6 12,1 14,8 70,0 4,3 231 - 0,0 590 1.017,6
12:21 17,6 12,2 14,8 70,0 4,4 249 - 0,0 586 1.017,6
12:20 17,6 12,1 14,8 69,9 4,4 256 - 0,0 571 1.017,6
12:19 17,6 12,0 14,7 69,0 4,3 246 - 0,0 562 1.017,6
12:18 17,7 12,0 14,7 69,0 4,3 250 - 0,0 598 1.017,6
12:17 17,7 12,0 14,7 69,0 4,3 257 - 0,0 620 1.017,6
12:16 17,7 12,0 14,7 69,0 4,3 243 - 0,0 632 1.017,7
12:15 17,7 12,0 14,7 69,0 4,1 242 - 0,0 632 1.017,7
12:14 17,7 12,0 14,7 69,0 4,0 212 - 0,0 629 1.017,6
12:13 17,7 12,0 14,7 68,8 3,9 245 - 0,0 629 1.017,7
12:12 17,7 11,8 14,6 68,0 3,9 247 - 0,0 525 1.017,7
12:11 17,7 11,9 14,6 68,0 4,0 225 - 0,0 490 1.017,6
12:10 17,8 11,9 14,6 68,0 4,2 240 - 0,0 503 1.017,6
12:09 17,7 11,9 14,6 68,0 4,1 238 - 0,0 584 1.017,6
12:08 17,7 11,8 14,6 68,0 3,8 236 - 0,0 631 1.017,6
12:07 17,7 11,9 14,6 68,0 3,7 219 - 0,0 619 1.017,6
12:06 17,8 11,7 14,6 67,4 3,8 209 - 0,0 585 1.017,7
12:05 17,8 11,7 14,5 67,0 4,2 242 - 0,0 559 1.017,7
12:04 17,8 11,7 14,6 67,0 4,8 246 - 0,0 641 1.017,7
12:03 17,9 11,6 14,5 66,2 5,0 225 - 0,0 640 1.017,7
12:02 18,0 11,5 14,5 65,6 5,0 235 - 0,0 465 1.017,7
12:01 18,0 11,5 14,5 65,0 4,9 238 - 0,0 373 1.017,7
12:00 18,1 11,4 14,4 64,6 4,7 250 - 0,0 498 1.017,7
 
11:59 18,1 11,3 14,4 64,0 4,5 225 - 0,0 533 1.017,7
11:58 18,2 11,4 14,5 64,0 4,1 263 - 0,0 610 1.017,7
11:57 18,2 11,4 14,5 64,0 3,8 201 - 0,0 606 1.017,7
11:56 18,3 11,4 14,5 64,0 3,8 268 - 0,0 601 1.017,7
11:55 18,3 11,5 14,6 64,0 4,1 245 - 0,0 594 1.017,7
11:54 18,3 11,4 14,5 63,6 3,9 249 - 0,0 597 1.017,8
11:53 18,3 11,2 14,4 63,0 3,7 252 - 0,0 606 1.017,8
11:52 18,3 11,2 14,4 63,0 3,8 261 - 0,0 605 1.017,8
11:51 18,3 11,2 14,4 63,0 3,8 250 - 0,0 603 1.017,8
11:50 18,2 11,2 14,4 63,2 4,2 240 - 0,0 603 1.017,8
11:49 18,2 11,3 14,5 63,7 4,2 251 - 0,0 604 1.017,8
11:48 18,2 11,1 14,3 63,0 3,9 257 - 0,0 587 1.017,8
11:47 18,2 11,3 14,4 63,7 3,0 261 - 0,0 595 1.017,8
11:46 18,1 11,3 14,4 64,0 2,3 227 - 0,0 611 1.017,8
11:45 18,1 11,3 14,4 64,0 1,7 240 - 0,0 603 1.017,8
11:44 18,1 11,2 14,3 64,0 1,6 259 - 0,0 616 1.017,8
11:43 18,1 11,1 14,3 63,7 1,5 259 - 0,0 645 1.017,8
11:42 18,0 11,0 14,2 63,0 1,8 291 - 0,0 513 1.017,7
11:41 18,0 10,9 14,1 63,0 1,8 251 - 0,0 452 1.017,7
11:40 17,9 10,9 14,1 63,0 2,0 259 - 0,0 243 1.017,7
11:39 17,9 10,8 14,0 63,0 2,1 242 - 0,0 243 1.017,7
11:38 17,8 10,7 13,9 63,0 2,3 247 - 0,0 252 1.017,7
11:37 17,7 10,7 13,9 63,0 2,2 243 - 0,0 242 1.017,7
11:36 17,6 10,6 13,8 63,0 2,0 205 - 0,0 330 1.017,6
11:35 17,6 10,5 13,7 63,0 1,8 215 - 0,0 345 1.017,6
11:34 17,5 10,4 13,7 63,0 1,7 230 - 0,0 339 1.017,6
11:33 17,4 10,4 13,6 63,0 1,8 232 - 0,0 339 1.017,6
11:32 17,3 10,3 13,5 63,0 1,6 204 - 0,0 339 1.017,6
11:31 17,3 10,2 13,4 62,6 1,2 192 - 0,0 314 1.017,5
11:30 17,2 10,0 13,3 62,0 0,6 223 - 0,0 301 1.017,5
11:29 17,2 9,9 13,2 62,0 0,2 128 - 0,0 292 1.017,4
11:28 17,1 9,9 13,2 62,0 0,2 124 - 0,0 274 1.017,5
11:27 17,1 9,8 13,2 62,0 0,0 124 - 0,0 227 1.017,5
11:26 17,1 9,8 13,1 62,0 0,0 124 - 0,0 215 1.017,5
11:25 17,0 9,8 13,1 62,0 0,1 124 - 0,0 220 1.017,5
11:24 17,0 9,7 13,1 62,0 0,1 123 - 0,0 247 1.017,5
11:23 16,9 9,7 13,0 62,0 0,2 123 - 0,0 513 1.017,5
11:22 16,9 9,6 13,0 62,0 0,3 123 - 0,0 429 1.017,5
11:21 16,8 9,6 13,0 62,2 0,4 163 - 0,0 272 1.017,5
11:20 16,8 9,8 13,0 63,0 0,4 183 - 0,0 279 1.017,5
11:19 16,7 9,6 12,9 62,6 0,2 98 - 0,0 277 1.017,5
11:18 16,7 9,5 12,8 62,0 0,1 50 - 0,0 245 1.017,5
11:17 16,7 9,4 12,8 62,0 0,1 50 - 0,0 242 1.017,5
11:16 16,6 9,4 12,8 62,0 0,1 50 - 0,0 233 1.017,5
11:15 16,6 9,4 12,8 62,2 0,2 50 - 0,0 225 1.017,4
11:14 16,6 9,6 12,8 63,0 0,3 50 - 0,0 224 1.017,4
11:13 16,6 9,6 12,8 63,0 0,3 11 - 0,0 232 1.017,4
11:12 16,5 9,5 12,8 63,0 0,6 101 - 0,0 251 1.017,4
11:11 16,5 9,5 12,8 63,0 0,7 96 - 0,0 325 1.017,4
11:10 16,4 9,5 12,7 63,0 0,5 99 - 0,0 506 1.017,4
11:09 16,4 9,4 12,7 62,8 0,3 99 - 0,0 317 1.017,4
11:08 16,4 9,1 12,5 62,0 0,4 99 - 0,0 163 1.017,4
11:07 16,3 9,1 12,5 62,0 0,6 71 - 0,0 163 1.017,4
11:06 16,3 9,1 12,5 62,0 0,6 109 - 0,0 163 1.017,4
11:05 16,3 9,1 12,5 62,0 0,4 73 - 0,0 157 1.017,4
11:04 16,3 9,1 12,5 62,0 0,4 15 - 0,0 135 1.017,5
11:03 16,3 9,1 12,5 62,2 0,3 23 - 0,0 126 1.017,5
11:02 16,2 9,3 12,5 63,0 0,4 113 - 0,0 125 1.017,5
11:01 16,2 9,1 12,4 62,5 0,2 31 - 0,0 131 1.017,5
11:00 16,2 9,0 12,4 62,0 0,1 215 - 0,0 148 1.017,5
 
10:59 16,2 9,0 12,3 62,0 0,2 95 - 0,0 151 1.017,6
10:58 16,1 8,9 12,3 62,0 0,3 103 - 0,0 163 1.017,6
10:57 16,1 8,9 12,3 62,0 0,3 174 - 0,0 177 1.017,6
10:56 16,1 8,9 12,3 62,0 0,4 73 - 0,0 195 1.017,6
10:55 16,0 9,0 12,3 62,6 0,7 152 - 0,0 213 1.017,6
10:54 16,0 9,0 12,3 63,0 0,8 152 - 0,0 606 1.017,6
10:53 16,0 9,0 12,3 63,0 0,7 119 - 0,0 626 1.017,6
10:52 15,9 9,0 12,3 63,0 0,8 95 - 0,0 451 1.017,6
10:51 15,9 9,0 12,3 63,0 1,0 103 - 0,0 237 1.017,7
10:50 15,9 8,9 12,2 63,0 1,2 117 - 0,0 237 1.017,7
10:49 15,9 8,9 12,2 63,0 1,2 127 - 0,0 236 1.017,7
10:48 15,8 8,9 12,2 63,0 1,1 95 - 0,0 217 1.017,7
10:47 15,8 8,9 12,2 63,0 0,8 100 - 0,0 213 1.017,7
10:46 15,8 8,9 12,2 63,0 0,4 90 - 0,0 207 1.017,7
10:45 15,8 8,9 12,2 63,0 0,5 165 - 0,0 199 1.017,7
10:44 15,8 8,8 12,2 63,0 0,5 139 - 0,0 189 1.017,7
10:43 15,8 8,8 12,1 63,0 0,7 190 - 0,0 181 1.017,7
10:42 15,8 8,8 12,1 63,0 0,9 155 - 0,0 178 1.017,7
10:41 15,8 8,8 12,1 63,0 1,3 101 - 0,0 176 1.017,6
10:40 15,7 8,9 12,2 63,6 1,5 70 - 0,0 170 1.017,7
10:39 15,7 8,8 12,1 63,0 1,2 96 - 0,0 159 1.017,7
10:38 15,7 8,7 12,0 63,0 0,5 124 - 0,0 150 1.017,7
10:37 15,7 8,7 12,0 63,0 0,3 233 - 0,0 148 1.017,8
10:36 15,7 8,7 12,0 63,0 0,3 65 - 0,0 150 1.017,8
10:35 15,7 8,7 12,0 63,0 0,5 190 - 0,0 152 1.017,7
10:34 15,6 8,7 12,0 63,0 0,6 171 - 0,0 157 1.017,7
10:33 15,6 8,7 12,0 63,0 0,5 174 - 0,0 161 1.017,8
10:32 15,6 8,7 12,0 63,0 0,6 179 - 0,0 164 1.017,8
10:31 15,6 8,7 12,0 63,0 0,6 194 - 0,0 173 1.017,8
10:30 15,6 8,7 12,0 63,0 0,4 182 - 0,0 183 1.017,8
10:29 15,6 8,7 12,0 63,0 0,4 168 - 0,0 187 1.017,8
10:28 15,6 8,6 12,0 63,0 0,6 168 - 0,0 182 1.017,7
10:27 15,6 8,6 11,9 63,0 0,6 207 - 0,0 169 1.017,8
10:26 15,6 8,6 11,9 63,0 0,4 189 - 0,0 123 1.017,8
10:25 15,6 8,6 12,0 63,0 0,1 64 - 0,0 116 1.017,8
10:24 15,6 8,6 11,9 63,0 0,3 64 - 0,0 113 1.017,8
10:23 15,6 8,6 11,9 63,0 0,3 62 - 0,0 101 1.017,8
10:22 15,6 8,6 11,9 63,0 0,4 190 - 0,0 96 1.017,8
10:21 15,6 8,6 11,9 63,0 0,8 238 - 0,0 94 1.017,8
10:20 15,6 8,5 11,9 62,5 0,8 201 - 0,0 91 1.017,8
10:19 15,5 8,4 11,8 62,0 0,5 173 - 0,0 91 1.017,8
10:18 15,5 8,3 11,8 62,0 0,4 153 - 0,0 94 1.017,8
10:17 15,5 8,3 11,7 61,9 0,5 118 - 0,0 96 1.017,8
10:16 15,5 8,1 11,6 61,0 0,7 177 - 0,0 98 1.017,9
10:15 15,5 8,1 11,6 61,0 0,8 192 - 0,0 101 1.017,8
10:14 15,5 8,0 11,6 61,0 1,0 104 - 0,0 105 1.017,8
10:13 15,5 8,0 11,6 61,0 1,2 120 - 0,0 109 1.017,8
10:12 15,4 8,0 11,6 61,0 1,2 108 - 0,0 114 1.017,8
10:11 15,4 8,0 11,6 61,0 1,1 155 - 0,0 118 1.017,7
10:10 15,4 8,0 11,6 61,0 1,0 136 - 0,0 125 1.017,7
10:09 15,4 8,0 11,6 61,0 0,9 184 - 0,0 132 1.017,7
10:08 15,4 8,0 11,5 61,0 0,7 159 - 0,0 141 1.017,7
10:07 15,4 8,0 11,5 61,0 0,7 70 - 0,0 147 1.017,7
10:06 15,4 7,8 11,4 60,2 0,8 168 - 0,0 151 1.017,8
10:05 15,4 7,7 11,4 60,0 1,3 184 - 0,0 158 1.017,8
10:04 15,4 7,7 11,4 60,0 1,0 192 - 0,0 164 1.017,8
10:03 15,4 7,7 11,4 60,0 0,9 89 - 0,0 172 1.017,8
10:02 15,4 7,7 11,4 60,0 1,1 124 - 0,0 178 1.017,7
10:01 15,4 7,7 11,4 60,0 1,2 143 - 0,0 180 1.017,7
10:00 15,4 7,7 11,4 60,0 0,8 108 - 0,0 174 1.017,7
 
09:59 15,4 7,7 11,4 60,0 0,6 203 - 0,0 161 1.017,8
09:58 15,4 7,6 11,3 59,7 0,5 130 - 0,0 149 1.017,7
09:57 15,4 7,5 11,2 59,0 0,7 60 - 0,0 141 1.017,7
09:56 15,3 7,4 11,2 59,0 0,7 136 - 0,0 128 1.017,7
09:55 15,3 7,4 11,2 59,0 0,8 151 - 0,0 116 1.017,7
09:54 15,3 7,4 11,2 59,0 0,7 91 - 0,0 107 1.017,7
09:53 15,3 7,4 11,2 59,0 0,8 197 - 0,0 100 1.017,6
09:52 15,3 7,4 11,2 59,0 0,9 161 - 0,0 92 1.017,6
09:51 15,3 7,3 11,2 58,6 0,8 202 - 0,0 87 1.017,7
09:50 15,3 7,2 11,1 58,0 0,8 216 - 0,0 83 1.017,7
09:49 15,3 7,2 11,1 58,0 0,9 209 - 0,0 83 1.017,7
09:48 15,3 7,2 11,1 58,0 0,9 187 - 0,0 83 1.017,7
09:47 15,3 7,2 11,1 58,0 1,0 210 - 0,0 84 1.017,7
09:46 15,3 7,2 11,1 58,0 1,0 209 - 0,0 85 1.017,7
09:45 15,3 7,2 11,1 58,0 0,8 222 - 0,0 89 1.017,6
09:44 15,3 7,2 11,1 58,0 0,8 171 - 0,0 90 1.017,6
09:43 15,3 6,9 11,0 57,2 0,9 184 - 0,0 88 1.017,7
09:42 15,3 6,9 10,9 57,0 0,9 174 - 0,0 84 1.017,7
09:41 15,3 6,9 10,9 57,0 0,9 194 - 0,0 79 1.017,7
09:40 15,3 6,9 10,9 57,0 0,9 168 - 0,0 74 1.017,7
09:39 15,3 6,9 10,9 57,0 0,9 153 - 0,0 68 1.017,7
09:38 15,3 6,9 10,9 57,0 0,9 159 - 0,0 60 1.017,7
09:37 15,2 6,8 10,9 57,0 0,8 94 - 0,0 56 1.017,7
09:36 15,2 6,8 10,9 57,0 0,7 174 - 0,0 59 1.017,6
09:35 15,2 6,8 10,9 57,0 0,6 194 - 0,0 65 1.017,6
09:34 15,2 6,8 10,9 57,0 0,5 294 - 0,0 71 1.017,6
09:33 15,2 6,8 10,8 57,0 0,6 170 - 0,0 76 1.017,5
09:32 15,2 6,8 10,8 57,0 0,8 176 - 0,0 83 1.017,6
09:31 15,1 6,7 10,8 57,0 0,7 184 - 0,0 88 1.017,6
09:30 15,1 6,7 10,8 56,9 0,8 218 - 0,0 94 1.017,6
09:29 15,1 6,4 10,6 56,0 0,9 180 - 0,0 99 1.017,6
09:28 15,1 6,4 10,6 56,0 0,8 173 - 0,0 104 1.017,6
09:27 15,1 6,4 10,6 56,0 0,9 90 - 0,0 113 1.017,6
09:26 15,0 6,4 10,6 56,0 0,8 153 - 0,0 121 1.017,5
09:25 15,0 6,4 10,6 56,0 0,9 168 - 0,0 131 1.017,6
09:24 15,0 6,3 10,5 56,0 0,9 147 - 0,0 137 1.017,6
09:23 15,0 6,3 10,5 56,0 0,9 189 - 0,0 140 1.017,6
09:22 15,0 6,3 10,5 56,0 1,0 159 - 0,0 145 1.017,7
09:21 14,9 6,3 10,5 56,0 0,9 199 - 0,0 144 1.017,6
09:20 14,9 6,2 10,4 56,0 0,7 203 - 0,0 140 1.017,6
09:19 14,9 6,2 10,4 56,0 0,7 130 - 0,0 143 1.017,5
09:18 14,9 6,2 10,4 56,0 1,0 190 - 0,0 146 1.017,5
09:17 14,8 6,2 10,4 56,0 1,3 161 - 0,0 162 1.017,5
09:16 14,8 6,2 10,4 56,0 1,3 189 - 0,0 223 1.017,6
09:15 14,8 6,2 10,4 56,0 1,4 209 - 0,0 214 1.017,6
09:14 14,8 6,2 10,4 56,0 1,3 222 - 0,0 172 1.017,7
09:13 14,8 6,1 10,3 56,0 1,4 158 - 0,0 169 1.017,8
09:12 14,8 5,9 10,2 55,0 1,5 188 - 0,0 170 1.017,8
09:11 14,8 5,8 10,2 55,0 1,7 224 - 0,0 174 1.017,8
09:10 14,7 5,8 10,2 55,0 1,9 238 - 0,0 167 1.017,8
09:09 14,7 5,8 10,2 55,0 1,8 199 - 0,0 166 1.017,8
09:08 14,7 5,8 10,2 55,0 1,2 207 - 0,0 160 1.017,8
09:07 14,7 5,8 10,2 55,0 0,9 111 - 0,0 157 1.017,9
09:06 14,7 5,8 10,2 55,0 1,0 220 - 0,0 153 1.017,9
09:05 14,7 5,8 10,2 55,0 1,2 136 - 0,0 148 1.017,9
09:04 14,7 5,8 10,2 55,0 1,0 207 - 0,0 140 1.017,8
09:03 14,7 5,8 10,2 55,0 1,0 181 - 0,0 133 1.017,9
09:02 14,7 5,8 10,2 55,0 1,0 165 - 0,0 123 1.017,9
09:01 14,7 5,8 10,2 55,0 0,9 222 - 0,0 115 1.017,9
09:00 14,7 5,8 10,2 55,0 0,9 240 - 0,0 106 1.017,9
 
08:59 14,7 5,8 10,2 55,0 0,9 198 - 0,0 99 1.017,8
08:58 14,7 5,8 10,2 55,0 1,1 190 - 0,0 94 1.017,8
08:57 14,7 5,8 10,2 55,0 1,2 176 - 0,0 90 1.017,8
08:56 14,7 5,8 10,2 55,0 1,2 216 - 0,0 89 1.017,8
08:55 14,7 5,8 10,2 55,0 1,2 157 - 0,0 90 1.017,8
08:54 14,8 5,8 10,2 55,0 1,3 209 - 0,0 91 1.017,8
08:53 14,8 5,9 10,2 55,0 1,5 186 - 0,0 90 1.017,8
08:52 14,8 5,9 10,2 55,0 1,5 183 - 0,0 90 1.017,8
08:51 14,8 5,9 10,2 55,0 1,4 203 - 0,0 87 1.017,8
08:50 14,8 5,9 10,2 55,0 0,8 184 - 0,0 83 1.017,8
08:49 14,8 5,9 10,3 55,0 0,8 97 - 0,0 76 1.017,8
08:48 14,8 5,8 10,2 54,6 0,8 184 - 0,0 69 1.017,9
08:47 14,8 5,6 10,1 54,0 1,0 213 - 0,0 62 1.017,9
08:46 14,8 5,7 10,2 54,0 1,0 177 - 0,0 55 1.017,8
08:45 14,9 5,7 10,2 54,0 0,8 215 - 0,0 52 1.017,8
08:44 14,9 5,7 10,2 54,0 0,7 121 - 0,0 48 1.017,8
08:43 14,9 5,7 10,2 54,0 0,7 190 - 0,0 47 1.017,8
08:42 14,9 5,7 10,2 54,0 0,6 224 - 0,0 43 1.017,8
08:41 14,9 5,7 10,2 54,0 0,4 124 - 0,0 40 1.017,8
08:40 14,9 5,6 10,2 53,4 0,5 162 - 0,0 35 1.017,9
08:39 15,0 5,5 10,1 53,0 0,9 228 - 0,0 31 1.017,9
08:38 15,0 5,5 10,2 53,0 1,1 216 - 0,0 26 1.017,9
08:37 15,0 5,5 10,2 53,0 1,1 202 - 0,0 26 1.017,9
08:36 15,0 5,6 10,2 53,0 1,0 180 - 0,0 25 1.017,8
08:35 15,0 5,5 10,2 53,0 0,9 200 - 0,0 25 1.017,9
08:34 15,1 5,6 10,2 53,0 0,8 197 - 0,0 26 1.017,9
08:33 15,1 5,6 10,2 53,0 0,9 179 - 0,0 27 1.017,8
08:32 15,1 5,3 10,1 52,1 1,1 211 - 0,0 28 1.017,8
08:31 15,1 5,3 10,1 52,0 1,4 194 - 0,0 29 1.017,8
08:30 15,1 5,3 10,1 52,0 1,4 195 - 0,0 30 1.017,9
08:29 15,1 5,3 10,1 52,0 1,4 151 - 0,0 30 1.017,8
08:28 15,2 5,4 10,2 52,0 1,2 172 - 0,0 32 1.017,8
08:27 15,2 5,4 10,2 52,0 0,6 74 - 0,0 35 1.017,8
08:26 15,2 5,4 10,2 52,0 0,2 243 - 0,0 42 1.017,9
08:25 15,2 5,4 10,2 52,0 0,3 67 - 0,0 42 1.017,9
08:24 15,2 5,4 10,2 52,0 0,5 134 - 0,0 46 1.017,9
08:23 15,2 5,5 10,2 52,0 0,6 211 - 0,0 53 1.017,9
08:22 15,2 5,5 10,2 52,0 0,6 90 - 0,0 63 1.017,9
08:21 15,2 5,4 10,2 52,0 0,9 199 - 0,0 71 1.017,8
08:20 15,2 5,5 10,2 52,0 1,3 178 - 0,0 78 1.017,8
08:19 15,2 5,5 10,2 52,0 1,4 213 - 0,0 84 1.017,8
08:18 15,3 5,5 10,2 52,0 1,3 188 - 0,0 91 1.017,8
08:17 15,3 5,5 10,2 52,0 1,0 229 - 0,0 97 1.017,8
08:16 15,3 5,5 10,3 52,0 0,8 132 - 0,0 103 1.017,8
08:15 15,3 5,5 10,2 52,0 1,1 141 - 0,0 111 1.017,8
08:14 15,3 5,5 10,2 52,0 1,2 184 - 0,0 114 1.017,7
08:13 15,2 5,4 10,2 51,8 1,0 158 - 0,0 131 1.017,7
08:12 15,2 5,3 10,2 51,4 1,0 99 - 0,0 131 1.017,7
08:11 15,2 5,5 10,2 52,0 1,0 139 - 0,0 100 1.017,7
08:10 15,2 5,4 10,2 52,0 1,1 63 - 0,0 91 1.017,7
08:09 15,2 5,2 10,1 51,2 1,4 109 - 0,0 98 1.017,7
08:08 15,2 5,4 10,1 52,0 1,5 83 - 0,0 161 1.017,7
08:07 15,1 5,4 10,1 52,0 1,1 105 - 0,0 216 1.017,7
08:06 15,1 5,3 10,1 52,0 1,1 179 - 0,0 160 1.017,7
08:05 15,0 5,3 10,1 52,0 1,2 146 - 0,0 201 1.017,7
08:04 15,0 5,2 10,0 52,0 0,9 189 - 0,0 216 1.017,7
08:03 14,9 5,2 10,0 52,0 0,8 97 - 0,0 243 1.017,6
08:02 14,9 5,1 9,9 52,0 0,9 113 - 0,0 180 1.017,6
08:01 14,8 5,1 9,9 52,0 0,7 131 - 0,0 118 1.017,6
08:00 14,8 5,1 9,9 52,0 0,9 180 - 0,0 159 1.017,5
 
07:59 14,7 5,0 9,8 52,0 1,0 161 - 0,0 192 1.017,5
07:58 14,7 5,1 9,8 52,7 1,3 88 - 0,0 219 1.017,5
07:57 14,6 5,2 9,8 53,0 1,4 90 - 0,0 211 1.017,5
07:56 14,5 5,1 9,8 53,0 1,2 148 - 0,0 206 1.017,5
07:55 14,5 5,0 9,7 53,0 1,0 73 - 0,0 205 1.017,5
07:54 14,4 5,0 9,7 53,0 1,0 101 - 0,0 202 1.017,5
07:53 14,3 4,9 9,6 53,0 1,2 113 - 0,0 204 1.017,5
07:52 14,3 5,1 9,6 53,8 1,5 95 - 0,0 200 1.017,5
07:51 14,2 5,1 9,6 54,0 1,5 99 - 0,0 195 1.017,5
07:50 14,2 5,0 9,6 54,0 1,4 132 - 0,0 193 1.017,5
07:49 14,1 5,0 9,5 54,0 1,3 90 - 0,0 187 1.017,5
07:48 14,0 4,9 9,5 54,0 1,2 99 - 0,0 182 1.017,5
07:47 14,0 4,9 9,4 54,0 0,9 93 - 0,0 177 1.017,5
07:46 14,0 4,8 9,4 54,0 0,9 144 - 0,0 170 1.017,5
07:45 13,9 5,0 9,5 54,9 1,0 87 - 0,0 165 1.017,5
07:44 13,8 4,8 9,3 54,2 1,0 137 - 0,0 160 1.017,5
07:43 13,8 5,0 9,4 55,0 0,8 86 - 0,0 157 1.017,6
07:42 13,8 4,8 9,3 54,5 0,6 178 - 0,0 156 1.017,6
07:41 13,7 4,8 9,3 54,7 0,5 88 - 0,0 155 1.017,6
07:40 13,7 4,8 9,3 55,0 0,4 176 - 0,0 152 1.017,6
07:39 13,7 4,8 9,3 55,0 0,4 108 - 0,0 148 1.017,6
07:38 13,6 4,8 9,2 55,0 0,4 146 - 0,0 145 1.017,6
07:37 13,6 4,7 9,2 55,0 0,7 157 - 0,0 145 1.017,6
07:36 13,5 4,7 9,2 55,0 0,9 148 - 0,0 143 1.017,7
07:35 13,5 4,7 9,1 55,0 0,9 95 - 0,0 141 1.017,7
07:34 13,4 4,6 9,1 55,0 1,1 112 - 0,0 138 1.017,6
07:33 13,4 4,6 9,1 55,0 1,1 126 - 0,0 136 1.017,6
07:32 13,4 4,5 9,0 55,0 1,0 79 - 0,0 134 1.017,6
07:31 13,3 4,5 9,0 55,0 0,8 139 - 0,0 133 1.017,7
07:30 13,3 4,5 9,0 55,0 0,9 117 - 0,0 130 1.017,6
07:29 13,3 4,4 8,9 55,0 0,9 126 - 0,0 127 1.017,6
07:28 13,2 4,4 8,9 55,0 0,8 86 - 0,0 126 1.017,6
07:27 13,2 4,4 8,9 55,0 0,8 107 - 0,0 123 1.017,7
07:26 13,2 4,4 8,9 55,3 1,0 124 - 0,0 120 1.017,7
07:25 13,2 4,6 9,0 56,0 1,2 138 - 0,0 117 1.017,7
07:24 13,1 4,6 8,9 56,0 1,0 128 - 0,0 113 1.017,7
07:23 13,1 4,6 8,9 56,0 1,0 127 - 0,0 109 1.017,7
07:22 13,1 4,5 8,9 56,0 1,5 87 - 0,0 110 1.017,6
07:21 13,0 4,5 8,9 56,0 1,7 101 - 0,0 106 1.017,7
07:20 13,0 4,5 8,8 56,0 1,1 107 - 0,0 105 1.017,7
07:19 13,0 4,4 8,8 56,0 1,1 186 - 0,0 101 1.017,6
07:18 13,0 4,4 8,8 56,0 1,3 116 - 0,0 98 1.017,6
07:17 12,9 4,4 8,8 56,0 1,2 84 - 0,0 98 1.017,6
07:16 12,9 4,4 8,7 56,0 0,6 168 - 0,0 98 1.017,6
07:15 12,9 4,4 8,7 56,0 0,7 213 - 0,0 95 1.017,6
07:14 12,9 4,3 8,7 56,0 1,1 109 - 0,0 92 1.017,5
07:13 12,8 4,3 8,7 56,0 1,6 99 - 0,0 89 1.017,6
07:12 12,8 4,3 8,7 56,0 1,5 97 - 0,0 88 1.017,6
07:11 12,8 4,3 8,6 56,0 1,3 120 - 0,0 87 1.017,6
07:10 12,8 4,3 8,6 56,0 1,2 120 - 0,0 84 1.017,6
07:09 12,7 4,2 8,6 56,0 1,1 78 - 0,0 84 1.017,6
07:08 12,7 4,2 8,6 56,0 1,1 148 - 0,0 79 1.017,6
07:07 12,7 4,2 8,5 56,0 1,2 113 - 0,0 79 1.017,6
07:06 12,6 4,1 8,5 56,0 1,5 103 - 0,0 77 1.017,6
07:05 12,6 4,3 8,6 56,8 1,5 90 - 0,0 75 1.017,6
07:04 12,6 4,3 8,6 57,0 1,2 146 - 0,0 72 1.017,6
07:03 12,5 4,3 8,6 57,0 1,0 87 - 0,0 70 1.017,6
07:02 12,5 4,3 8,5 57,0 0,8 97 - 0,0 69 1.017,6
07:01 12,5 4,2 8,5 57,0 1,0 190 - 0,0 69 1.017,5
07:00 12,5 4,2 8,5 57,0 1,4 92 - 0,0 66 1.017,5
 
06:59 12,4 4,2 8,4 57,0 2,1 82 - 0,0 67 1.017,6
06:58 12,4 4,1 8,4 57,0 1,7 103 - 0,0 64 1.017,6
06:57 12,3 4,1 8,4 57,0 1,1 129 - 0,0 62 1.017,6
06:56 12,3 4,1 8,4 57,0 1,4 153 - 0,0 62 1.017,6
06:55 12,3 4,0 8,3 57,0 1,7 125 - 0,0 59 1.017,5
06:54 12,3 4,0 8,3 57,0 1,6 80 - 0,0 58 1.017,5
06:53 12,3 4,0 8,3 57,0 1,2 95 - 0,0 57 1.017,6
06:52 12,2 4,0 8,3 57,0 1,1 122 - 0,0 54 1.017,5
06:51 12,2 4,0 8,3 57,0 1,2 103 - 0,0 51 1.017,4
06:50 12,2 4,0 8,2 57,0 1,2 138 - 0,0 50 1.017,4
06:49 12,2 3,9 8,2 57,0 0,9 178 - 0,0 47 1.017,4
06:48 12,2 3,9 8,2 57,0 0,6 238 - 0,0 49 1.017,4
06:47 12,1 3,9 8,2 57,0 0,9 101 - 0,0 47 1.017,5
06:46 12,1 3,9 8,2 57,0 1,4 99 - 0,0 45 1.017,5
06:45 12,1 3,9 8,2 57,0 1,1 78 - 0,0 43 1.017,5
06:44 12,1 3,9 8,1 57,0 0,5 65 - 0,0 42 1.017,5
06:43 12,1 3,8 8,1 57,0 0,9 205 - 0,0 40 1.017,5
06:42 12,1 3,9 8,1 57,2 1,2 134 - 0,0 37 1.017,5
06:41 12,0 4,0 8,2 57,9 1,5 82 - 0,0 36 1.017,4
06:40 12,0 4,1 8,2 58,0 1,4 104 - 0,0 36 1.017,4
06:39 12,0 4,0 8,2 58,0 1,2 120 - 0,0 35 1.017,4
06:38 12,0 4,0 8,2 58,0 0,6 69 - 0,0 33 1.017,4
06:37 12,0 4,0 8,2 58,0 0,9 213 - 0,0 33 1.017,4
06:36 11,9 4,0 8,1 58,0 1,4 132 - 0,0 32 1.017,5
06:35 11,9 3,8 8,0 57,2 1,6 113 - 0,0 31 1.017,5
06:34 11,9 4,0 8,1 58,0 1,3 99 - 0,0 29 1.017,5
06:33 11,9 4,0 8,1 58,0 1,1 120 - 0,0 28 1.017,5
06:32 11,9 4,0 8,1 58,0 1,0 111 - 0,0 28 1.017,5
06:31 11,9 4,0 8,1 58,0 1,1 168 - 0,0 26 1.017,5
06:30 11,9 4,0 8,1 58,0 1,1 147 - 0,0 26 1.017,5
06:29 11,9 4,0 8,1 58,0 1,1 109 - 0,0 25 1.017,5
06:28 11,9 3,9 8,1 57,8 1,1 75 - 0,0 24 1.017,5
06:27 11,9 3,8 8,1 57,4 0,8 142 - 0,0 23 1.017,5
06:26 11,9 4,0 8,1 58,0 0,8 101 - 0,0 23 1.017,5
06:25 11,9 4,0 8,1 58,0 1,0 134 - 0,0 21 1.017,5
06:24 11,9 4,0 8,1 58,0 1,2 150 - 0,0 19 1.017,5
06:23 11,9 4,0 8,1 58,0 1,1 143 - 0,0 19 1.017,5
06:22 11,9 4,0 8,1 58,0 1,1 121 - 0,0 18 1.017,5
06:21 11,9 4,0 8,1 58,0 1,2 101 - 0,0 18 1.017,6
06:20 11,9 3,8 8,1 57,5 1,2 125 - 0,0 16 1.017,6
06:19 11,9 3,7 8,0 57,0 1,3 64 - 0,0 14 1.017,6
06:18 11,9 3,7 8,0 57,0 1,5 80 - 0,0 14 1.017,6
06:17 11,9 3,7 8,0 57,0 1,5 89 - 0,0 14 1.017,6
06:16 11,9 3,7 8,0 57,0 1,3 84 - 0,0 13 1.017,5
06:15 11,9 3,7 8,0 57,0 1,1 92 - 0,0 11 1.017,6
06:14 11,9 3,7 8,0 57,0 1,3 75 - 0,0 11 1.017,6
06:13 12,0 3,7 8,0 57,0 1,6 99 - 0,0 11 1.017,6
06:12 12,0 3,8 8,1 57,0 1,7 86 - 0,0 9 1.017,6
06:11 12,0 3,8 8,1 57,0 1,4 78 - 0,0 8 1.017,6
06:10 12,0 3,8 8,1 57,0 1,3 125 - 0,0 7 1.017,6
06:09 12,0 3,8 8,1 57,0 1,3 85 - 0,0 6 1.017,6
06:08 12,0 3,8 8,1 57,0 1,4 106 - 0,0 5 1.017,6
06:07 12,1 3,8 8,1 57,0 1,5 87 - 0,0 5 1.017,5
06:06 12,1 3,8 8,1 57,0 1,5 119 - 0,0 5 1.017,5
06:05 12,1 3,8 8,1 57,0 1,0 100 - 0,0 3 1.017,6
06:04 12,1 3,9 8,1 57,0 1,2 205 - 0,0 0 1.017,6
06:03 12,1 3,9 8,2 57,0 1,3 113 - 0,0 0 1.017,5
06:02 12,1 3,9 8,2 57,0 1,4 131 - 0,0 0 1.017,6
06:01 12,1 3,7 8,1 56,3 1,3 165 - 0,0 0 1.017,6
06:00 12,1 3,6 8,1 56,0 1,2 136 - 0,0 0 1.017,6
 
05:59 12,1 3,6 8,1 56,0 1,5 72 - 0,0 0 1.017,6
05:58 12,2 3,7 8,1 56,0 1,8 147 - 0,0 0 1.017,6
05:57 12,2 3,7 8,1 56,0 1,7 109 - 0,0 0 1.017,6
05:56 12,2 3,7 8,1 56,0 1,5 80 - 0,0 0 1.017,6
05:55 12,2 3,7 8,1 56,0 1,2 151 - 0,0 0 1.017,6
05:54 12,2 3,7 8,1 56,0 1,0 63 - 0,0 0 1.017,6
05:53 12,2 3,7 8,2 56,0 1,2 136 - 0,0 0 1.017,6
05:52 12,2 3,7 8,2 56,0 1,7 97 - 0,0 0 1.017,6
05:51 12,2 3,7 8,2 56,0 1,9 106 - 0,0 0 1.017,7
05:50 12,3 3,8 8,2 56,0 1,4 91 - 0,0 0 1.017,7
05:49 12,3 3,8 8,2 56,0 0,7 64 - 0,0 0 1.017,7
05:48 12,3 3,8 8,2 56,0 0,6 174 - 0,0 0 1.017,7
05:47 12,3 3,8 8,2 56,0 0,8 118 - 0,0 0 1.017,7
05:46 12,3 3,8 8,2 56,0 0,7 132 - 0,0 0 1.017,8
05:45 12,3 3,8 8,3 56,0 0,6 126 - 0,0 0 1.017,7
05:44 12,3 3,8 8,3 56,0 0,4 114 - 0,0 0 1.017,8
05:43 12,3 3,8 8,3 56,0 0,4 126 - 0,0 0 1.017,8
05:42 12,3 3,8 8,3 56,0 0,4 101 - 0,0 0 1.017,8
05:41 12,3 3,8 8,3 56,0 0,4 166 - 0,0 0 1.017,8
05:40 12,3 3,8 8,3 56,0 0,4 105 - 0,0 0 1.017,9
05:39 12,3 3,8 8,3 56,0 0,5 129 - 0,0 0 1.017,8
05:38 12,4 3,9 8,3 56,0 0,5 105 - 0,0 0 1.017,9
05:37 12,3 3,8 8,3 56,0 0,6 124 - 0,0 0 1.017,9
05:36 12,3 3,8 8,3 56,0 0,8 103 - 0,0 0 1.017,8
05:35 12,4 3,9 8,3 56,0 0,9 107 - 0,0 0 1.017,8
05:34 12,4 3,9 8,3 56,0 0,9 98 - 0,0 0 1.017,9
05:33 12,4 3,9 8,3 56,0 0,7 101 - 0,0 0 1.017,9
05:32 12,4 3,9 8,3 56,0 0,8 182 - 0,0 0 1.017,9
05:31 12,4 3,9 8,3 56,0 1,2 90 - 0,0 0 1.017,9
05:30 12,4 3,9 8,3 56,0 1,7 78 - 0,0 0 1.017,9
05:29 12,4 3,9 8,3 56,0 1,8 110 - 0,0 0 1.017,9
05:28 12,4 3,9 8,3 56,0 1,7 104 - 0,0 0 1.017,9
05:27 12,4 3,9 8,3 56,0 1,5 103 - 0,0 0 1.017,9
05:26 12,4 3,9 8,3 56,0 1,5 82 - 0,0 0 1.017,9
05:25 12,4 3,9 8,3 56,0 1,4 62 - 0,0 0 1.017,9
05:24 12,4 3,9 8,3 56,0 1,5 91 - 0,0 0 1.017,9
05:23 12,4 3,9 8,3 56,0 1,6 57 - 0,0 0 1.017,9
05:22 12,4 3,9 8,3 56,0 1,9 141 - 0,0 0 1.017,9
05:21 12,4 3,9 8,3 56,0 2,2 91 - 0,0 0 1.017,9
05:20 12,4 3,8 8,3 55,3 2,5 88 - 0,0 0 1.017,9
05:19 12,4 3,7 8,2 55,0 2,4 90 - 0,0 0 1.017,9
05:18 12,5 3,7 8,3 55,0 2,5 84 - 0,0 0 1.017,9
05:17 12,5 3,7 8,3 55,0 2,5 87 - 0,0 0 1.017,9
05:16 12,5 3,7 8,3 55,0 2,4 104 - 0,0 0 1.017,9
05:15 12,5 3,8 8,3 55,0 2,1 96 - 0,0 0 1.017,9
05:14 12,5 3,8 8,3 55,0 2,0 83 - 0,0 0 1.018,0
05:13 12,6 3,8 8,3 55,0 1,1 88 - 0,0 0 1.018,0
05:12 12,6 3,8 8,3 55,0 1,3 212 - 0,0 0 1.017,9
05:11 12,6 3,8 8,3 55,0 1,6 140 - 0,0 0 1.017,9
05:10 12,6 3,8 8,3 55,0 1,4 134 - 0,0 0 1.017,9
05:09 12,6 3,8 8,3 55,0 1,2 49 - 0,0 0 1.018,0
05:08 12,6 3,8 8,3 55,0 1,6 68 - 0,0 0 1.018,0
05:07 12,6 3,8 8,4 55,0 1,9 91 - 0,0 0 1.018,1
05:06 12,6 3,8 8,4 55,0 2,0 112 - 0,0 0 1.018,1
05:05 12,6 3,8 8,4 55,0 1,8 114 - 0,0 0 1.018,0
05:04 12,6 3,8 8,4 55,0 1,8 72 - 0,0 0 1.018,0
05:03 12,6 3,8 8,4 55,0 2,1 70 - 0,0 0 1.018,0
05:02 12,6 3,9 8,4 55,0 2,2 106 - 0,0 0 1.018,0
05:01 12,6 3,9 8,4 55,0 2,2 80 - 0,0 0 1.018,0
05:00 12,7 3,9 8,4 55,0 2,0 128 - 0,0 0 1.018,0
 
04:59 12,7 3,9 8,4 55,0 1,8 92 - 0,0 0 1.018,0
04:58 12,7 3,9 8,4 55,0 1,6 155 - 0,0 0 1.018,0
04:57 12,7 3,9 8,4 55,0 1,6 86 - 0,0 0 1.018,0
04:56 12,7 3,9 8,4 55,0 2,0 82 - 0,0 0 1.018,0
04:55 12,7 3,9 8,4 55,0 2,4 89 - 0,0 0 1.018,1
04:54 12,7 3,9 8,5 55,0 2,5 97 - 0,0 0 1.018,1
04:53 12,7 4,0 8,5 55,0 2,2 60 - 0,0 0 1.018,0
04:52 12,7 4,0 8,5 55,0 1,5 103 - 0,0 0 1.018,1
04:51 12,8 3,8 8,4 54,4 1,7 158 - 0,0 0 1.018,1
04:50 12,8 3,7 8,4 54,0 1,7 143 - 0,0 0 1.018,1
04:49 12,8 3,7 8,4 54,0 1,6 98 - 0,0 0 1.018,1
04:48 12,8 3,7 8,4 54,0 1,9 96 - 0,0 0 1.018,1
04:47 12,8 3,7 8,4 54,0 2,2 96 - 0,0 0 1.018,1
04:46 12,8 3,7 8,4 54,0 2,2 83 - 0,0 0 1.018,1
04:45 12,8 3,8 8,4 54,0 1,9 91 - 0,0 0 1.018,1
04:44 12,8 3,8 8,5 54,0 1,7 128 - 0,0 0 1.018,1
04:43 12,8 3,8 8,4 54,0 1,6 158 - 0,0 0 1.018,1
04:42 12,8 3,8 8,5 54,0 1,4 103 - 0,0 0 1.018,1
04:41 12,9 3,8 8,5 54,0 1,2 154 - 0,0 0 1.018,1
04:40 12,9 3,8 8,5 54,0 1,2 170 - 0,0 0 1.018,1
04:39 12,9 3,8 8,5 54,0 1,4 88 - 0,0 0 1.018,1
04:38 12,9 3,8 8,5 54,0 1,8 95 - 0,0 0 1.018,2
04:37 12,9 3,9 8,5 54,0 2,1 95 - 0,0 0 1.018,2
04:36 12,9 3,9 8,5 54,0 2,2 86 - 0,0 0 1.018,2
04:35 13,0 3,9 8,6 54,0 2,0 101 - 0,0 0 1.018,2
04:34 13,0 3,9 8,6 54,0 1,8 84 - 0,0 0 1.018,2
04:33 13,0 3,9 8,6 54,0 1,6 95 - 0,0 0 1.018,2
04:32 13,0 3,9 8,6 54,0 1,5 107 - 0,0 0 1.018,1
04:31 13,0 3,9 8,6 54,0 1,6 105 - 0,0 0 1.018,1
04:30 13,0 3,9 8,6 53,7 1,7 109 - 0,0 0 1.018,1
04:29 13,1 3,7 8,5 53,0 1,8 100 - 0,0 0 1.018,1
04:28 13,1 3,7 8,5 53,0 1,8 70 - 0,0 0 1.018,2
04:27 13,1 3,9 8,6 53,8 1,9 109 - 0,0 0 1.018,2
04:26 13,1 4,0 8,7 54,0 1,9 109 - 0,0 0 1.018,2
04:25 13,1 4,0 8,7 54,0 2,0 46 - 0,0 0 1.018,2
04:24 13,1 3,9 8,6 53,7 2,2 64 - 0,0 0 1.018,2
04:23 13,2 3,8 8,6 53,0 1,9 72 - 0,0 0 1.018,2
04:22 13,2 3,8 8,6 53,0 2,0 128 - 0,0 0 1.018,2
04:21 13,2 3,8 8,6 53,0 1,9 99 - 0,0 0 1.018,2
04:20 13,2 3,8 8,6 53,0 1,9 80 - 0,0 0 1.018,3
04:19 13,2 3,8 8,6 53,0 1,9 116 - 0,0 0 1.018,2
04:18 13,2 3,9 8,7 53,0 2,0 102 - 0,0 0 1.018,2
04:17 13,2 3,9 8,7 53,0 2,2 76 - 0,0 0 1.018,2
04:16 13,2 3,9 8,7 53,0 2,3 88 - 0,0 0 1.018,3
04:15 13,2 3,9 8,7 53,0 2,4 107 - 0,0 0 1.018,3
04:14 13,3 3,9 8,7 53,0 2,2 96 - 0,0 0 1.018,3
04:13 13,3 3,9 8,7 53,0 2,0 86 - 0,0 0 1.018,3
04:12 13,3 3,9 8,7 53,0 2,0 86 - 0,0 0 1.018,3
04:11 13,3 3,9 8,7 53,0 2,3 121 - 0,0 0 1.018,3
04:10 13,3 4,0 8,7 53,0 2,3 83 - 0,0 0 1.018,3
04:09 13,3 4,0 8,8 53,0 2,1 85 - 0,0 0 1.018,3
04:08 13,3 3,7 8,7 52,1 1,9 100 - 0,0 0 1.018,3
04:07 13,4 3,7 8,7 52,0 2,1 97 - 0,0 0 1.018,3
04:06 13,4 3,7 8,7 52,0 2,2 130 - 0,0 0 1.018,3
04:05 13,4 3,8 8,7 52,0 2,2 91 - 0,0 0 1.018,3
04:04 13,4 3,8 8,7 52,0 2,3 94 - 0,0 0 1.018,3
04:03 13,5 3,8 8,7 52,0 2,3 93 - 0,0 0 1.018,3
04:02 13,5 3,8 8,8 52,0 2,1 111 - 0,0 0 1.018,3
04:01 13,5 3,9 8,8 52,0 2,0 136 - 0,0 0 1.018,3
04:00 13,5 3,9 8,8 52,0 1,9 100 - 0,0 0 1.018,4
 
03:59 13,6 3,9 8,8 52,0 1,7 76 - 0,0 0 1.018,3
03:58 13,6 3,9 8,8 52,0 1,4 145 - 0,0 0 1.018,3
03:57 13,6 3,9 8,9 52,0 1,1 140 - 0,0 0 1.018,3
03:56 13,6 3,9 8,9 52,0 1,2 48 - 0,0 0 1.018,3
03:55 13,6 4,0 8,9 52,0 1,6 122 - 0,0 0 1.018,3
03:54 13,6 4,0 8,9 52,0 1,9 113 - 0,0 0 1.018,3
03:53 13,7 4,0 8,9 52,0 1,9 91 - 0,0 0 1.018,3
03:52 13,7 4,0 8,9 52,0 2,1 78 - 0,0 0 1.018,3
03:51 13,7 3,7 8,8 51,0 2,1 100 - 0,0 0 1.018,4
03:50 13,7 3,7 8,8 51,0 2,0 86 - 0,0 0 1.018,4
03:49 13,7 3,8 8,8 51,0 1,4 108 - 0,0 0 1.018,4
03:48 13,8 3,8 8,9 51,0 1,2 197 - 0,0 0 1.018,4
03:47 13,8 3,8 8,9 51,0 1,3 121 - 0,0 0 1.018,4
03:46 13,8 3,8 8,9 51,0 1,6 111 - 0,0 0 1.018,3
03:45 13,8 3,8 8,9 51,0 1,6 121 - 0,0 0 1.018,4
03:44 13,8 3,9 8,9 51,0 1,4 134 - 0,0 0 1.018,4
03:43 13,8 3,9 8,9 51,0 1,6 64 - 0,0 0 1.018,4
03:42 13,9 3,9 8,9 51,0 1,8 105 - 0,0 0 1.018,4
03:41 13,9 3,9 9,0 51,0 1,8 106 - 0,0 0 1.018,4
03:40 13,9 4,0 9,0 51,0 1,6 105 - 0,0 0 1.018,5
03:39 13,9 4,0 9,0 51,0 1,6 70 - 0,0 0 1.018,5
03:38 14,0 4,0 9,0 51,0 1,6 115 - 0,0 0 1.018,5
03:37 14,0 4,0 9,1 51,0 1,5 72 - 0,0 0 1.018,5
03:36 14,0 4,0 9,1 51,0 1,4 110 - 0,0 0 1.018,5
03:35 14,0 4,0 9,1 51,0 1,5 66 - 0,0 0 1.018,5
03:34 14,0 4,1 9,1 51,0 1,6 102 - 0,0 0 1.018,5
03:33 14,0 4,1 9,1 51,0 1,7 99 - 0,0 0 1.018,5
03:32 14,1 4,1 9,1 51,0 1,7 78 - 0,0 0 1.018,5
03:31 14,1 4,1 9,1 51,0 1,8 130 - 0,0 0 1.018,6
03:30 14,1 4,0 9,1 50,5 1,9 87 - 0,0 0 1.018,6
03:29 14,1 3,9 9,1 50,0 1,9 99 - 0,0 0 1.018,5
03:28 14,1 3,9 9,1 50,0 1,9 99 - 0,0 0 1.018,6
03:27 14,2 3,9 9,1 50,0 1,8 95 - 0,0 0 1.018,5
03:26 14,2 3,9 9,1 50,0 1,7 88 - 0,0 0 1.018,5
03:25 14,2 3,9 9,1 50,0 1,4 126 - 0,0 0 1.018,5
03:24 14,2 3,9 9,1 50,0 1,6 172 - 0,0 0 1.018,6
03:23 14,2 4,0 9,1 50,0 1,5 169 - 0,0 0 1.018,6
03:22 14,3 4,0 9,2 50,0 1,7 99 - 0,0 0 1.018,6
03:21 14,3 4,0 9,2 50,0 1,8 158 - 0,0 0 1.018,6
03:20 14,3 3,9 9,2 49,8 2,0 84 - 0,0 0 1.018,6
03:19 14,3 3,9 9,1 49,4 2,3 94 - 0,0 0 1.018,6
03:18 14,4 4,1 9,2 50,0 1,9 74 - 0,0 0 1.018,6
03:17 14,4 4,1 9,2 50,0 1,4 115 - 0,0 0 1.018,6
03:16 14,4 4,1 9,3 49,9 1,5 103 - 0,0 0 1.018,7
03:15 14,4 3,8 9,2 49,0 1,9 119 - 0,0 0 1.018,7
03:14 14,4 3,8 9,2 49,0 1,9 103 - 0,0 0 1.018,7
03:13 14,4 3,8 9,2 49,0 1,7 132 - 0,0 0 1.018,7
03:12 14,5 3,9 9,2 49,0 1,8 55 - 0,0 0 1.018,7
03:11 14,5 3,9 9,2 49,0 2,0 95 - 0,0 0 1.018,7
03:10 14,5 3,9 9,2 49,0 1,9 64 - 0,0 0 1.018,7
03:09 14,6 3,9 9,3 49,0 1,6 98 - 0,0 0 1.018,7
03:08 14,6 4,0 9,3 49,0 1,5 162 - 0,0 0 1.018,7
03:07 14,6 4,0 9,3 49,0 1,1 104 - 0,0 0 1.018,8
03:06 14,6 4,0 9,3 49,0 1,0 222 - 0,0 0 1.018,8
03:05 14,6 4,0 9,3 49,0 1,1 89 - 0,0 0 1.018,8
03:04 14,6 3,7 9,2 48,1 1,8 116 - 0,0 0 1.018,8
03:03 14,6 3,7 9,2 48,0 1,8 107 - 0,0 0 1.018,9
03:02 14,7 3,8 9,2 48,0 1,6 86 - 0,0 0 1.018,9
03:01 14,7 3,8 9,2 48,0 1,3 60 - 0,0 0 1.018,9
03:00 14,7 3,8 9,2 48,0 1,4 115 - 0,0 0 1.018,9
 
02:59 14,7 3,8 9,3 48,0 1,4 67 - 0,0 0 1.019,0
02:58 14,7 3,8 9,3 48,0 1,1 157 - 0,0 0 1.019,0
02:57 14,7 3,8 9,3 48,0 1,5 158 - 0,0 0 1.019,0
02:56 14,7 3,8 9,3 48,0 1,6 139 - 0,0 0 1.019,0
02:55 14,8 3,8 9,3 48,0 1,9 95 - 0,0 0 1.019,0
02:54 14,8 3,8 9,3 48,0 1,8 93 - 0,0 0 1.019,1
02:53 14,8 3,9 9,3 48,0 1,7 88 - 0,0 0 1.019,1
02:52 14,8 3,9 9,4 48,0 1,7 134 - 0,0 0 1.019,1
02:51 14,8 3,9 9,4 48,0 1,6 165 - 0,0 0 1.019,1
02:50 14,8 3,9 9,4 48,0 1,4 93 - 0,0 0 1.019,1
02:49 14,9 3,9 9,4 48,0 1,5 111 - 0,0 0 1.019,2
02:48 14,9 4,0 9,4 48,0 1,4 57 - 0,0 0 1.019,2
02:47 14,9 4,0 9,4 48,0 1,5 135 - 0,0 0 1.019,2
02:46 14,9 4,0 9,4 48,0 1,6 103 - 0,0 0 1.019,2
02:45 14,9 4,0 9,5 48,0 1,5 105 - 0,0 0 1.019,2
02:44 15,0 4,0 9,5 48,0 1,8 105 - 0,0 0 1.019,2
02:43 15,0 4,0 9,5 48,0 1,9 101 - 0,0 0 1.019,2
02:42 15,0 4,1 9,5 48,0 2,1 136 - 0,0 0 1.019,3
02:41 15,0 3,8 9,4 47,2 2,1 96 - 0,0 0 1.019,3
02:40 15,1 3,8 9,4 47,0 2,1 105 - 0,0 0 1.019,3
02:39 15,1 3,8 9,4 47,0 1,9 128 - 0,0 0 1.019,3
02:38 15,1 3,8 9,4 47,0 1,9 111 - 0,0 0 1.019,3
02:37 15,1 3,8 9,4 47,0 2,3 82 - 0,0 0 1.019,4
02:36 15,1 3,9 9,5 47,0 2,5 107 - 0,0 0 1.019,4
02:35 15,1 3,9 9,5 47,0 2,3 99 - 0,0 0 1.019,3
02:34 15,1 3,9 9,5 47,0 2,0 93 - 0,0 0 1.019,3
02:33 15,2 3,9 9,5 47,0 1,9 117 - 0,0 0 1.019,3
02:32 15,2 3,9 9,5 47,0 2,1 68 - 0,0 0 1.019,3
02:31 15,2 3,9 9,5 47,0 2,4 99 - 0,0 0 1.019,4
02:30 15,2 4,0 9,6 47,0 2,2 84 - 0,0 0 1.019,4
02:29 15,2 4,0 9,6 47,0 1,9 113 - 0,0 0 1.019,4
02:28 15,3 3,7 9,5 46,1 1,7 136 - 0,0 0 1.019,4
02:27 15,3 3,8 9,5 46,3 1,6 200 - 0,0 0 1.019,4
02:26 15,3 3,9 9,6 46,6 1,7 105 - 0,0 0 1.019,4
02:25 15,3 3,7 9,5 46,0 2,3 84 - 0,0 0 1.019,4
02:24 15,3 3,7 9,5 46,0 1,8 101 - 0,0 0 1.019,5
02:23 15,3 3,8 9,5 46,0 1,8 174 - 0,0 0 1.019,5
02:22 15,4 3,8 9,6 46,0 1,8 92 - 0,0 0 1.019,5
02:21 15,4 3,8 9,5 46,0 2,1 91 - 0,0 0 1.019,5
02:20 15,4 3,8 9,6 46,0 2,2 109 - 0,0 0 1.019,5
02:19 15,4 3,8 9,6 46,0 2,3 84 - 0,0 0 1.019,5
02:18 15,5 3,9 9,6 46,0 2,0 143 - 0,0 0 1.019,5
02:17 15,5 3,9 9,6 46,0 1,9 69 - 0,0 0 1.019,5
02:16 15,5 3,9 9,7 46,0 2,0 122 - 0,0 0 1.019,5
02:15 15,6 3,9 9,7 46,0 1,9 87 - 0,0 0 1.019,5
02:14 15,6 3,9 9,7 46,0 1,9 109 - 0,0 0 1.019,5
02:13 15,6 3,7 9,6 45,4 1,9 113 - 0,0 0 1.019,5
02:12 15,6 3,7 9,6 45,0 1,9 110 - 0,0 0 1.019,5
02:11 15,6 3,7 9,6 45,0 1,9 88 - 0,0 0 1.019,5
02:10 15,7 3,7 9,6 45,0 1,7 100 - 0,0 0 1.019,5
02:09 15,7 3,7 9,6 45,0 1,6 146 - 0,0 0 1.019,5
02:08 15,7 3,7 9,6 45,0 1,5 94 - 0,0 0 1.019,6
02:07 15,7 3,7 9,7 45,0 1,6 116 - 0,0 0 1.019,6
02:06 15,7 3,8 9,7 45,0 1,7 140 - 0,0 0 1.019,6
02:05 15,8 3,8 9,7 45,0 2,0 101 - 0,0 0 1.019,6
02:04 15,8 3,8 9,7 45,0 2,2 118 - 0,0 0 1.019,6
02:03 15,8 3,8 9,7 45,0 2,4 85 - 0,0 0 1.019,6
02:02 15,8 3,8 9,7 45,0 2,4 88 - 0,0 0 1.019,6
02:01 15,8 3,9 9,8 45,0 2,2 109 - 0,0 0 1.019,7
02:00 15,8 3,9 9,8 45,0 1,6 86 - 0,0 0 1.019,7
 
01:59 15,9 3,9 9,8 45,0 0,9 58 - 0,0 0 1.019,7
01:58 15,9 3,9 9,8 45,0 0,8 185 - 0,0 0 1.019,7
01:57 15,9 3,9 9,8 45,0 1,4 102 - 0,0 0 1.019,7
01:56 15,9 4,0 9,9 45,0 2,0 103 - 0,0 0 1.019,7
01:55 15,9 4,0 9,9 45,0 2,3 79 - 0,0 0 1.019,8
01:54 16,0 4,0 9,9 45,0 2,3 99 - 0,0 0 1.019,7
01:53 16,0 3,7 9,8 44,1 2,0 107 - 0,0 0 1.019,8
01:52 16,0 3,7 9,8 44,0 1,9 87 - 0,0 0 1.019,8
01:51 16,0 3,7 9,8 44,0 1,9 98 - 0,0 0 1.019,8
01:50 16,1 3,7 9,8 44,0 1,7 103 - 0,0 0 1.019,8
01:49 16,1 3,8 9,8 44,0 1,3 79 - 0,0 0 1.019,8
01:48 16,1 3,8 9,8 44,0 1,2 122 - 0,0 0 1.019,8
01:47 16,1 3,8 9,8 44,0 1,4 149 - 0,0 0 1.019,8
01:46 16,1 3,8 9,9 44,0 1,3 120 - 0,0 0 1.019,8
01:45 16,2 3,8 9,9 44,0 1,2 170 - 0,0 0 1.019,8
01:44 16,2 3,8 9,9 44,0 1,4 83 - 0,0 0 1.019,8
01:43 16,2 3,8 9,9 44,0 1,6 102 - 0,0 0 1.019,9
01:42 16,2 3,9 9,9 44,0 1,5 70 - 0,0 0 1.019,9
01:41 16,2 3,9 9,9 44,0 1,6 103 - 0,0 0 1.019,9
01:40 16,2 3,8 9,9 43,7 1,5 106 - 0,0 0 1.019,9
01:39 16,3 3,6 9,8 43,0 1,5 178 - 0,0 0 1.019,9
01:38 16,3 3,6 9,8 43,0 1,4 120 - 0,0 0 1.019,9
01:37 16,3 3,9 10,0 43,8 1,4 180 - 0,0 0 1.019,9
01:36 16,3 3,7 9,9 43,1 1,4 161 - 0,0 0 1.019,9
01:35 16,3 3,7 9,9 43,0 1,3 105 - 0,0 0 1.019,9
01:34 16,3 3,7 9,9 43,0 1,4 89 - 0,0 0 1.019,9
01:33 16,4 3,7 9,9 43,0 0,9 65 - 0,0 0 1.020,0
01:32 16,4 3,7 9,9 43,0 0,7 190 - 0,0 0 1.019,9
01:31 16,4 3,7 10,0 43,0 0,9 76 - 0,0 0 1.019,9
01:30 16,4 3,8 10,0 43,0 1,2 101 - 0,0 0 1.019,9
01:29 16,4 3,8 10,0 43,0 1,2 155 - 0,0 0 1.020,0
01:28 16,5 3,8 10,0 43,0 1,3 87 - 0,0 0 1.020,0
01:27 16,5 3,8 10,0 43,0 1,6 114 - 0,0 0 1.019,9
01:26 16,5 3,8 10,0 43,0 1,5 98 - 0,0 0 1.019,9
01:25 16,5 3,8 10,0 43,0 1,0 116 - 0,0 0 1.020,0
01:24 16,6 3,9 10,1 43,0 1,0 168 - 0,0 0 1.020,0
01:23 16,6 3,9 10,1 43,0 1,1 113 - 0,0 0 1.020,1
01:22 16,6 3,9 10,1 43,0 1,3 64 - 0,0 0 1.020,1
01:21 16,6 3,9 10,1 43,0 1,3 105 - 0,0 0 1.020,1
01:20 16,6 3,7 10,0 42,3 1,2 80 - 0,0 0 1.020,1
01:19 16,6 3,6 10,0 42,0 1,2 105 - 0,0 0 1.020,1
01:18 16,6 3,6 10,0 42,0 1,2 72 - 0,0 0 1.020,0
01:17 16,7 3,6 10,0 42,0 1,1 55 - 0,0 0 1.020,1
01:16 16,7 3,6 10,0 42,0 0,9 120 - 0,0 0 1.020,0
01:15 16,7 3,6 10,0 42,0 0,9 79 - 0,0 0 1.020,1
01:14 16,7 3,7 10,0 42,0 1,1 110 - 0,0 0 1.020,1
01:13 16,7 3,7 10,0 42,0 1,1 64 - 0,0 0 1.020,1
01:12 16,8 3,7 10,1 42,0 0,7 85 - 0,0 0 1.020,1
01:11 16,8 3,7 10,1 42,0 0,9 180 - 0,0 0 1.020,1
01:10 16,8 3,7 10,1 42,0 0,9 118 - 0,0 0 1.020,1
01:09 16,8 3,7 10,1 42,0 1,2 64 - 0,0 0 1.020,1
01:08 16,8 3,7 10,1 42,0 1,4 101 - 0,0 0 1.020,1
01:07 16,8 3,8 10,1 42,0 1,5 151 - 0,0 0 1.020,1
01:06 16,8 3,8 10,1 42,0 1,4 98 - 0,0 0 1.020,1
01:05 16,9 3,8 10,1 42,0 1,5 93 - 0,0 0 1.020,1
01:04 16,9 3,8 10,1 42,0 1,6 116 - 0,0 0 1.020,1
01:03 16,9 3,8 10,2 42,0 1,6 93 - 0,0 0 1.020,1
01:02 16,9 3,8 10,2 42,0 1,3 122 - 0,0 0 1.020,1
01:01 16,9 3,9 10,2 42,0 1,2 167 - 0,0 0 1.020,1
01:00 16,9 3,9 10,2 42,0 1,2 126 - 0,0 0 1.020,1
 
00:59 16,9 3,9 10,2 42,0 1,4 103 - 0,0 0 1.020,1
00:58 16,9 3,9 10,2 42,0 1,2 80 - 0,0 0 1.020,1
00:57 17,0 3,7 10,1 41,4 1,1 157 - 0,0 0 1.020,1
00:56 17,0 3,6 10,1 41,0 1,1 89 - 0,0 0 1.020,1
00:55 17,0 3,6 10,1 41,0 1,2 131 - 0,0 0 1.020,1
00:54 17,1 3,6 10,1 41,0 1,4 86 - 0,0 0 1.020,1
00:53 17,1 3,6 10,1 41,0 1,4 97 - 0,0 0 1.020,2
00:52 17,1 3,6 10,1 41,0 1,3 100 - 0,0 0 1.020,2
00:51 17,1 3,6 10,2 41,0 1,3 95 - 0,0 0 1.020,2
00:50 17,1 3,7 10,2 41,0 1,2 102 - 0,0 0 1.020,2
00:49 17,1 3,7 10,2 41,0 1,0 107 - 0,0 0 1.020,2
00:48 17,1 3,7 10,2 41,0 1,0 88 - 0,0 0 1.020,2
00:47 17,1 3,7 10,2 41,0 1,1 168 - 0,0 0 1.020,2
00:46 17,1 3,7 10,2 41,0 1,0 98 - 0,0 0 1.020,2
00:45 17,2 3,7 10,2 41,0 0,9 187 - 0,0 0 1.020,2
00:44 17,2 3,7 10,2 41,0 1,2 102 - 0,0 0 1.020,2
00:43 17,2 3,7 10,2 41,0 1,6 97 - 0,0 0 1.020,3
00:42 17,2 3,7 10,2 41,0 1,5 130 - 0,0 0 1.020,3
00:41 17,2 3,7 10,2 41,0 1,3 161 - 0,0 0 1.020,3
00:40 17,2 3,8 10,3 41,0 1,2 95 - 0,0 0 1.020,3
00:39 17,2 3,5 10,2 40,3 1,1 117 - 0,0 0 1.020,3
00:38 17,2 3,4 10,1 40,0 1,0 196 - 0,0 0 1.020,2
00:37 17,2 3,4 10,1 40,0 1,1 97 - 0,0 0 1.020,3
00:36 17,3 3,5 10,2 40,0 1,8 79 - 0,0 0 1.020,3
00:35 17,3 3,5 10,2 40,0 1,6 101 - 0,0 0 1.020,3
00:34 17,3 3,5 10,2 40,0 1,4 85 - 0,0 0 1.020,3
00:33 17,3 3,5 10,2 40,0 1,4 136 - 0,0 0 1.020,2
00:32 17,3 3,5 10,2 40,0 1,4 116 - 0,0 0 1.020,3
00:31 17,3 3,5 10,2 40,0 1,4 81 - 0,0 0 1.020,3
00:30 17,3 3,5 10,2 40,0 1,3 122 - 0,0 0 1.020,3
00:29 17,4 3,5 10,2 40,0 1,1 105 - 0,0 0 1.020,3
00:28 17,4 3,5 10,2 40,0 0,4 84 - 0,0 0 1.020,3
00:27 17,4 3,6 10,2 40,0 0,3 244 - 0,0 0 1.020,3
00:26 17,4 3,6 10,2 40,0 0,8 105 - 0,0 0 1.020,3
00:25 17,4 3,6 10,3 40,0 1,6 93 - 0,0 0 1.020,3
00:24 17,4 3,6 10,3 40,0 1,6 96 - 0,0 0 1.020,3
00:23 17,4 3,6 10,3 40,0 1,4 99 - 0,0 0 1.020,3
00:22 17,4 3,6 10,3 40,0 1,2 83 - 0,0 0 1.020,3
00:21 17,4 3,6 10,3 40,0 1,0 125 - 0,0 0 1.020,3
00:20 17,5 3,6 10,3 40,0 1,0 113 - 0,0 0 1.020,3
00:19 17,5 3,6 10,3 40,0 1,1 85 - 0,0 0 1.020,3
00:18 17,5 3,6 10,3 40,0 1,3 108 - 0,0 0 1.020,3
00:17 17,5 3,7 10,3 40,0 1,1 87 - 0,0 0 1.020,4
00:16 17,5 3,7 10,3 40,0 0,9 183 - 0,0 0 1.020,4
00:15 17,5 3,7 10,4 40,0 0,9 84 - 0,0 0 1.020,3
00:14 17,6 3,7 10,4 40,0 0,7 147 - 0,0 0 1.020,4
00:13 17,6 3,6 10,3 39,8 0,6 220 - 0,0 0 1.020,3
00:12 17,6 3,5 10,3 39,4 0,6 74 - 0,0 0 1.020,3
00:11 17,6 3,6 10,3 39,5 0,9 131 - 0,0 0 1.020,4
00:10 17,6 3,4 10,3 39,0 0,6 163 - 0,0 0 1.020,4
00:09 17,6 3,4 10,3 39,0 0,4 37 - 0,0 0 1.020,4
00:08 17,7 3,4 10,3 39,0 0,4 98 - 0,0 0 1.020,4
00:07 17,7 3,4 10,3 39,0 0,7 184 - 0,0 0 1.020,4
00:06 17,7 3,4 10,3 39,0 0,7 122 - 0,0 0 1.020,4
00:05 17,7 3,5 10,3 39,0 0,3 206 - 0,0 0 1.020,4
00:04 17,7 3,5 10,3 39,0 0,6 290 - 0,0 0 1.020,4
00:03 17,7 3,5 10,4 39,0 0,3 251 - 0,0 0 1.020,4
00:02 17,8 3,5 10,4 39,0 0,2 83 - 0,0 0 1.020,4
00:01 17,8 3,5 10,4 39,0 0,5 97 - 0,0 0 1.020,4
00:00 17,8 3,6 10,4 39,0 0,5 172 - 0,0 0 1.020,5
 
23:59 17,8 3,6 10,4 39,0 0,5 154 - 0,0 0 1.020,4
23:58 17,8 3,6 10,4 39,0 0,6 149 - 0,0 0 1.020,4
23:57 17,8 3,6 10,4 39,0 0,7 147 - 0,0 0 1.020,4
23:56 17,9 3,6 10,5 39,0 0,6 136 - 0,0 0 1.020,5
23:55 17,9 3,6 10,5 39,0 0,5 184 - 0,0 0 1.020,5
23:54 17,9 3,5 10,4 38,6 0,4 92 - 0,0 0 1.020,5
23:53 17,9 3,3 10,4 38,0 0,6 43 - 0,0 0 1.020,5
23:52 17,9 3,6 10,5 38,7 0,5 117 - 0,0 0 1.020,5
23:51 18,0 3,7 10,5 39,0 0,1 4 - 0,0 0 1.020,5
23:50 18,0 3,7 10,5 38,9 0,2 233 - 0,0 0 1.020,5
23:49 18,0 3,4 10,4 38,0 0,3 125 - 0,0 0 1.020,5
23:48 18,0 3,4 10,4 38,0 0,4 101 - 0,0 0 1.020,5
23:47 18,0 3,4 10,4 38,0 0,4 174 - 0,0 0 1.020,5
23:46 18,0 3,4 10,4 38,0 0,5 200 - 0,0 0 1.020,5
23:45 18,0 3,4 10,4 38,0 0,7 145 - 0,0 0 1.020,4
23:44 18,1 3,4 10,4 38,0 0,3 188 - 0,0 0 1.020,4
23:43 18,1 3,4 10,5 38,0 0,2 339 - 0,0 0 1.020,5
23:42 18,1 3,5 10,5 38,0 0,5 78 - 0,0 0 1.020,5
23:41 18,1 3,5 10,5 38,0 0,8 118 - 0,0 0 1.020,5
23:40 18,2 3,5 10,5 38,0 0,7 88 - 0,0 0 1.020,5
23:39 18,2 3,5 10,5 38,0 0,8 163 - 0,0 0 1.020,5
23:38 18,2 3,5 10,5 38,0 0,7 136 - 0,0 0 1.020,5
23:37 18,2 3,6 10,6 38,0 0,6 103 - 0,0 0 1.020,5
23:36 18,2 3,6 10,6 38,0 0,5 173 - 0,0 0 1.020,5
23:35 18,2 3,3 10,5 37,4 0,6 86 - 0,0 0 1.020,5
23:34 18,3 3,2 10,4 37,0 0,9 113 - 0,0 0 1.020,5
23:33 18,3 3,2 10,4 37,0 0,6 121 - 0,0 0 1.020,5
23:32 18,3 3,2 10,4 37,0 0,5 263 - 0,0 0 1.020,5
23:31 18,3 3,3 10,5 37,0 0,2 153 - 0,0 0 1.020,5
23:30 18,3 3,3 10,5 37,0 0,5 41 - 0,0 0 1.020,5
23:29 18,3 3,3 10,5 37,0 0,6 126 - 0,0 0 1.020,5
23:28 18,3 3,3 10,5 37,0 0,7 157 - 0,0 0 1.020,6
23:27 18,4 3,3 10,5 37,0 0,5 68 - 0,0 0 1.020,5
23:26 18,4 3,3 10,5 37,0 0,5 168 - 0,0 0 1.020,5
23:25 18,4 3,3 10,5 37,0 0,5 81 - 0,0 0 1.020,5
23:24 18,4 3,3 10,5 37,0 0,3 216 - 0,0 0 1.020,5
23:23 18,4 3,3 10,5 37,0 0,5 72 - 0,0 0 1.020,6
23:22 18,4 3,1 10,4 36,2 0,8 93 - 0,0 0 1.020,6
23:21 18,4 3,0 10,4 36,0 0,1 53 - 0,0 0 1.020,5
23:20 18,5 3,0 10,4 36,0 0,3 247 - 0,0 0 1.020,5
23:19 18,5 3,0 10,4 36,0 0,5 132 - 0,0 0 1.020,5
23:18 18,5 3,0 10,4 36,0 0,6 282 - 0,0 0 1.020,5
23:17 18,5 3,0 10,5 36,0 1,0 185 - 0,0 0 1.020,6
23:16 18,5 3,0 10,5 36,0 1,0 232 - 0,0 0 1.020,6
23:15 18,6 3,1 10,5 36,0 0,5 283 - 0,0 0 1.020,5
23:14 18,6 3,1 10,5 36,0 0,3 78 - 0,0 0 1.020,6
23:13 18,6 3,1 10,5 36,0 1,0 135 - 0,0 0 1.020,6
23:12 18,6 3,2 10,6 36,0 1,1 99 - 0,0 0 1.020,6
23:11 18,7 3,2 10,6 36,0 1,1 72 - 0,0 0 1.020,6
23:10 18,7 3,2 10,6 36,0 1,0 53 - 0,0 0 1.020,6
23:09 18,7 3,2 10,6 36,0 0,8 124 - 0,0 0 1.020,6
23:08 18,7 3,2 10,6 36,0 0,9 160 - 0,0 0 1.020,6
23:07 18,8 3,3 10,6 36,0 1,0 99 - 0,0 0 1.020,6
23:06 18,8 3,3 10,7 36,0 1,1 138 - 0,0 0 1.020,6
23:05 18,8 3,3 10,7 36,0 1,2 159 - 0,0 0 1.020,6
23:04 18,8 3,3 10,7 36,0 1,0 169 - 0,0 0 1.020,7
23:03 18,8 3,0 10,5 35,1 0,8 232 - 0,0 0 1.020,6
23:02 18,9 3,0 10,6 35,0 0,7 129 - 0,0 0 1.020,6
23:01 18,9 3,0 10,6 35,0 1,5 63 - 0,0 0 1.020,7
23:00 18,9 3,0 10,6 35,0 1,7 73 - 0,0 0 1.020,7
 
22:59 19,0 3,0 10,6 35,0 1,6 78 - 0,0 0 1.020,7
22:58 19,0 3,1 10,6 35,0 1,5 105 - 0,0 0 1.020,6
22:57 19,0 3,1 10,7 35,0 1,2 141 - 0,0 0 1.020,7
22:56 19,1 3,1 10,7 35,0 0,9 59 - 0,0 0 1.020,7
22:55 19,1 3,2 10,7 35,0 0,5 113 - 0,0 0 1.020,7
22:54 19,1 3,2 10,7 35,0 0,5 236 - 0,0 0 1.020,6
22:53 19,2 3,2 10,8 35,0 0,1 118 - 0,0 0 1.020,7
22:52 19,2 3,2 10,8 35,0 0,4 0 - 0,0 0 1.020,7
22:51 19,2 3,3 10,8 35,0 0,1 136 - 0,0 0 1.020,7
22:50 19,2 3,3 10,8 35,0 0,1 276 - 0,0 0 1.020,7
22:49 19,3 3,3 10,8 35,0 0,4 90 - 0,0 0 1.020,7
22:48 19,3 3,3 10,8 35,0 0,9 165 - 0,0 0 1.020,8
22:47 19,3 3,3 10,9 35,0 0,9 154 - 0,0 0 1.020,8
22:46 19,3 3,3 10,9 35,0 0,8 168 - 0,0 0 1.020,8
22:45 19,3 3,3 10,9 34,8 1,0 174 - 0,0 0 1.020,8
22:44 19,4 3,1 10,8 34,4 0,9 183 - 0,0 0 1.020,7
22:43 19,4 3,5 10,9 35,0 0,9 97 - 0,0 0 1.020,8
22:42 19,4 3,5 11,0 35,0 1,0 98 - 0,0 0 1.020,7
22:41 19,5 3,5 11,0 35,0 0,9 116 - 0,0 0 1.020,7
22:40 19,5 3,2 10,9 34,2 0,8 120 - 0,0 0 1.020,8
22:39 19,6 3,5 11,0 34,8 0,3 141 - 0,0 0 1.020,8
22:38 19,6 3,2 10,9 34,0 0,1 321 - 0,0 0 1.020,8
22:37 19,6 3,4 11,0 34,6 0,3 120 - 0,0 0 1.020,8
22:36 19,6 3,6 11,1 35,0 0,5 110 - 0,0 0 1.020,8
22:35 19,6 3,6 11,1 35,0 0,4 213 - 0,0 0 1.020,8
22:34 19,7 3,7 11,1 35,0 0,5 111 - 0,0 0 1.020,8
22:33 19,7 3,6 11,1 34,8 0,4 186 - 0,0 0 1.020,9
22:32 19,7 3,3 11,0 34,0 0,2 64 - 0,0 0 1.020,9
22:31 19,7 3,3 11,0 34,0 0,0 238 - 0,0 0 1.020,9
22:30 19,8 3,4 11,0 34,0 0,1 42 - 0,0 0 1.020,9
22:29 19,8 3,4 11,0 34,0 0,4 109 - 0,0 0 1.020,9
22:28 19,8 3,4 11,0 34,0 0,4 134 - 0,0 0 1.020,9
22:27 19,8 3,4 11,1 34,0 0,4 60 - 0,0 0 1.020,8
22:26 19,9 3,4 11,1 34,0 0,4 57 - 0,0 0 1.020,8
22:25 19,9 3,5 11,1 34,0 0,6 126 - 0,0 0 1.020,8
22:24 19,9 3,5 11,1 34,0 0,2 84 - 0,0 0 1.020,8
22:23 19,9 3,5 11,1 34,0 0,1 303 - 0,0 0 1.020,8
22:22 19,9 3,5 11,1 34,0 0,3 186 - 0,0 0 1.020,8
22:21 20,0 3,5 11,2 34,0 0,6 136 - 0,0 0 1.020,8
22:20 20,0 3,5 11,2 34,0 0,2 178 - 0,0 0 1.020,8
22:19 20,0 3,6 11,2 34,0 0,3 305 - 0,0 0 1.020,8
22:18 20,0 3,6 11,2 34,0 0,1 180 - 0,0 0 1.020,8
22:17 20,1 3,6 11,2 34,0 0,4 68 - 0,0 0 1.020,8
22:16 20,1 3,6 11,2 34,0 0,3 91 - 0,0 0 1.020,9
22:15 20,1 3,6 11,3 34,0 0,3 192 - 0,0 0 1.020,9
22:14 20,1 3,6 11,3 34,0 0,5 242 - 0,0 0 1.020,8
22:13 20,2 3,4 11,2 33,4 0,5 256 - 0,0 0 1.020,8
22:12 20,2 3,3 11,1 33,0 0,6 175 - 0,0 0 1.020,8
22:11 20,2 3,3 11,2 33,0 0,5 255 - 0,0 0 1.020,8
22:10 20,2 3,4 11,2 33,2 0,4 176 - 0,0 0 1.020,8
22:09 20,3 3,6 11,3 33,7 0,8 121 - 0,0 0 1.020,8
22:08 20,3 3,4 11,2 33,0 0,8 142 - 0,0 0 1.020,8
22:07 20,3 3,4 11,2 33,0 0,6 108 - 0,0 0 1.020,8
22:06 20,3 3,4 11,2 33,0 0,6 130 - 0,0 0 1.020,9
22:05 20,4 3,5 11,3 33,0 0,3 113 - 0,0 0 1.020,9
22:04 20,4 3,5 11,3 33,0 0,1 281 - 0,0 0 1.020,8
22:03 20,4 3,5 11,3 33,0 0,2 123 - 0,0 0 1.020,8
22:02 20,4 3,5 11,3 33,0 0,5 78 - 0,0 0 1.020,8
22:01 20,5 3,5 11,3 33,0 0,4 107 - 0,0 0 1.020,8
22:00 20,5 3,6 11,4 33,0 0,5 172 - 0,0 0 1.020,8
 
21:59 20,6 3,6 11,4 33,0 0,6 102 - 0,0 0 1.020,8
21:58 20,6 3,6 11,4 33,0 0,7 104 - 0,0 0 1.020,8
21:57 20,6 3,7 11,4 33,0 0,5 134 - 0,0 0 1.020,8
21:56 20,7 3,7 11,5 33,0 0,1 30 - 0,0 0 1.020,8
21:55 20,7 3,8 11,5 33,0 0,2 228 - 0,0 0 1.020,8
21:54 20,7 3,8 11,5 33,0 0,5 128 - 0,0 0 1.020,8
21:53 20,8 3,8 11,5 32,9 0,6 161 - 0,0 0 1.020,8
21:52 20,8 3,5 11,4 32,3 0,6 70 - 0,0 0 1.020,8
21:51 20,8 3,9 11,6 33,0 0,6 158 - 0,0 0 1.020,8
21:50 20,9 3,9 11,6 33,0 0,6 93 - 0,0 0 1.020,8
21:49 20,9 3,9 11,7 33,0 0,6 82 - 0,0 0 1.020,8
21:48 21,0 3,6 11,5 32,2 0,5 78 - 0,0 0 1.020,8
21:47 21,0 3,6 11,5 32,0 0,5 88 - 0,0 0 1.020,8
21:46 21,1 3,6 11,6 32,0 0,4 123 - 0,0 0 1.020,8
21:45 21,1 3,6 11,6 32,0 0,4 12 - 0,0 0 1.020,8
21:44 21,2 3,7 11,6 32,0 0,3 84 - 0,0 0 1.020,8
21:43 21,2 3,7 11,7 32,0 0,5 174 - 0,0 0 1.020,8
21:42 21,2 3,8 11,7 32,0 0,5 139 - 0,0 0 1.020,8
21:41 21,3 3,8 11,7 32,0 0,3 84 - 0,0 0 1.020,8
21:40 21,3 3,7 11,7 31,7 0,3 226 - 0,0 0 1.020,8
21:39 21,3 3,4 11,6 31,0 0,4 175 - 0,0 0 1.020,8
21:38 21,4 3,4 11,6 31,0 0,3 263 - 0,0 0 1.020,8
21:37 21,4 3,5 11,6 31,0 0,2 172 - 0,0 0 1.020,7
21:36 21,4 3,5 11,6 31,0 0,3 110 - 0,0 0 1.020,8
21:35 21,5 3,5 11,6 31,0 0,4 101 - 0,0 0 1.020,8
21:34 21,5 3,5 11,7 31,0 0,4 105 - 0,0 0 1.020,8
21:33 21,5 3,6 11,7 31,0 0,4 136 - 0,0 0 1.020,8
21:32 21,6 3,6 11,7 31,0 0,3 166 - 0,0 0 1.020,8
21:31 21,6 3,7 11,8 31,0 0,3 167 - 0,0 0 1.020,8
21:30 21,6 3,7 11,8 31,0 0,4 70 - 0,0 0 1.020,8
21:29 21,7 3,7 11,8 31,0 0,4 96 - 0,0 0 1.020,8
21:28 21,7 3,7 11,8 31,0 0,4 99 - 0,0 0 1.020,8
21:27 21,7 3,8 11,8 31,0 0,3 89 - 0,0 0 1.020,8
21:26 21,8 3,8 11,9 31,0 0,3 194 - 0,0 0 1.020,8
21:25 21,8 3,8 11,9 31,0 0,3 126 - 0,0 0 1.020,8
21:24 21,8 3,4 11,7 30,1 0,4 101 - 0,0 0 1.020,8
21:23 21,9 3,4 11,7 30,0 0,5 84 - 0,0 0 1.020,8
21:22 21,9 3,4 11,7 30,0 0,4 105 - 0,0 0 1.020,8
21:21 21,9 3,5 11,8 30,0 0,5 91 - 0,0 0 1.020,8
21:20 22,0 3,5 11,8 30,0 0,6 117 - 0,0 0 1.020,8
21:19 22,0 3,6 11,8 30,0 0,6 124 - 0,0 0 1.020,8
21:18 22,1 3,6 11,9 30,0 0,5 134 - 0,0 0 1.020,8
21:17 22,1 3,5 11,8 29,8 0,5 84 - 0,0 0 1.020,8
21:16 22,2 3,4 11,8 29,4 0,5 105 - 0,0 0 1.020,8
21:15 22,2 3,4 11,8 29,5 0,6 124 - 0,0 0 1.020,8
21:14 22,2 3,2 11,8 29,0 0,6 118 - 0,0 0 1.020,8
21:13 22,3 3,3 11,8 29,0 0,6 121 - 0,0 0 1.020,8
21:12 22,3 3,3 11,8 29,0 0,6 107 - 0,0 0 1.020,8
21:11 22,4 3,4 11,9 29,0 0,5 128 - 0,0 0 1.020,8
21:10 22,4 3,4 11,9 29,0 0,2 49 - 0,0 0 1.020,8
21:09 22,5 3,4 11,9 29,0 0,1 290 - 0,0 0 1.020,8
21:08 22,5 3,5 11,9 29,0 0,2 186 - 0,0 0 1.020,7
21:07 22,5 3,1 11,8 28,2 0,4 158 - 0,0 2 1.020,8
21:06 22,6 3,0 11,8 28,0 0,6 105 - 0,0 5 1.020,8
21:05 22,6 3,1 11,8 28,0 0,6 123 - 0,0 5 1.020,7
21:04 22,6 3,1 11,8 28,0 0,5 151 - 0,0 5 1.020,7
21:03 22,7 3,1 11,9 28,0 0,2 84 - 0,0 5 1.020,8
21:02 22,7 3,2 11,9 28,0 0,4 219 - 0,0 5 1.020,7
21:01 22,8 3,2 11,9 28,0 0,6 180 - 0,0 7 1.020,7
21:00 22,8 3,2 11,9 28,0 0,2 179 - 0,0 7 1.020,7
 
20:59 22,8 3,3 12,0 28,0 0,4 29 - 0,0 7 1.020,7
20:58 22,9 3,3 12,0 28,0 0,5 59 - 0,0 7 1.020,8
20:57 22,9 3,4 12,0 28,0 0,3 150 - 0,0 9 1.020,8
20:56 23,0 3,4 12,1 28,0 0,4 136 - 0,0 9 1.020,8
20:55 23,0 3,4 12,1 28,0 0,5 119 - 0,0 10 1.020,8
20:54 23,1 3,0 11,9 27,0 0,6 80 - 0,0 11 1.020,7
20:53 23,1 3,0 11,9 27,0 0,5 107 - 0,0 11 1.020,8
20:52 23,1 3,0 11,9 27,0 0,6 130 - 0,0 12 1.020,8
20:51 23,1 3,0 12,0 27,0 0,7 92 - 0,0 12 1.020,8
20:50 23,2 3,1 12,0 27,0 0,8 101 - 0,0 12 1.020,8
20:49 23,2 3,1 12,0 27,0 0,8 73 - 0,0 12 1.020,8
20:48 23,2 3,1 12,0 27,0 0,8 89 - 0,0 13 1.020,8
20:47 23,2 3,1 12,0 27,0 0,7 105 - 0,0 14 1.020,8
20:46 23,3 3,1 12,1 27,0 0,6 112 - 0,0 14 1.020,8
20:45 23,3 3,2 12,1 27,0 0,7 111 - 0,0 14 1.020,8
20:44 23,3 3,2 12,1 27,0 0,8 115 - 0,0 16 1.020,8
20:43 23,4 3,2 12,1 27,0 0,6 97 - 0,0 16 1.020,8
20:42 23,4 3,2 12,1 27,0 0,7 199 - 0,0 17 1.020,8
20:41 23,4 3,3 12,1 27,0 0,8 136 - 0,0 18 1.020,8
20:40 23,4 3,3 12,2 27,0 1,0 112 - 0,0 19 1.020,8
20:39 23,5 2,9 12,0 26,2 1,0 139 - 0,0 19 1.020,8
20:38 23,5 2,8 12,0 26,0 1,0 109 - 0,0 20 1.020,8
20:37 23,6 2,9 12,0 26,0 0,7 146 - 0,0 21 1.020,8
20:36 23,5 2,8 12,0 26,0 0,4 47 - 0,0 22 1.020,8
20:35 23,6 2,9 12,1 26,0 0,6 201 - 0,0 23 1.020,8
20:34 23,6 2,9 12,1 26,0 1,0 138 - 0,0 25 1.020,8
20:33 23,7 3,0 12,1 26,0 1,1 95 - 0,0 26 1.020,8
20:32 23,7 3,0 12,1 26,0 1,1 116 - 0,0 27 1.020,8
20:31 23,7 3,0 12,1 26,0 1,1 138 - 0,0 28 1.020,8
20:30 23,7 3,0 12,1 26,0 0,9 82 - 0,0 29 1.020,8
20:29 23,8 3,0 12,1 26,0 1,0 95 - 0,0 30 1.020,8
20:28 23,8 3,0 12,2 26,0 1,4 124 - 0,0 32 1.020,8
20:27 23,8 3,1 12,2 26,0 1,7 97 - 0,0 33 1.020,9
20:26 23,8 3,1 12,2 26,0 1,3 89 - 0,0 34 1.020,8
20:25 23,9 3,1 12,2 26,0 0,8 163 - 0,0 36 1.020,8
20:24 23,9 3,1 12,2 26,0 0,9 174 - 0,0 38 1.020,8
20:23 23,9 3,1 12,2 26,0 1,0 168 - 0,0 39 1.020,8
20:22 23,9 3,1 12,2 26,0 0,8 161 - 0,0 40 1.020,8
20:21 23,9 2,8 12,1 25,3 1,0 80 - 0,0 40 1.020,8
20:20 23,9 2,6 12,1 25,0 1,1 138 - 0,0 43 1.020,8
20:19 24,0 2,7 12,1 25,0 1,1 84 - 0,0 45 1.020,8
20:18 24,0 2,7 12,1 25,0 0,9 117 - 0,0 47 1.020,8
20:17 24,0 2,7 12,1 25,0 1,0 207 - 0,0 49 1.020,8
20:16 24,0 2,7 12,1 25,0 1,0 131 - 0,0 51 1.020,9
20:15 24,1 2,7 12,1 25,0 1,3 99 - 0,0 52 1.020,9
20:14 24,1 2,8 12,1 25,0 1,4 80 - 0,0 54 1.020,8
20:13 24,1 2,8 12,1 25,0 1,5 116 - 0,0 56 1.020,8
20:12 24,1 2,8 12,2 25,0 1,5 92 - 0,0 58 1.020,8
20:11 24,1 2,8 12,2 25,0 1,5 86 - 0,0 60 1.020,8
20:10 24,2 2,8 12,2 25,0 1,2 97 - 0,0 62 1.020,8
20:09 24,2 2,8 12,2 25,0 1,3 176 - 0,0 64 1.020,8
20:08 24,2 2,9 12,2 25,0 1,3 120 - 0,0 66 1.020,8
20:07 24,2 2,9 12,2 25,0 1,2 148 - 0,0 68 1.020,8
20:06 24,2 2,9 12,2 25,0 1,3 197 - 0,0 70 1.020,8
20:05 24,3 2,6 12,1 24,5 1,3 128 - 0,0 73 1.020,8
20:04 24,3 2,4 12,0 24,0 1,7 113 - 0,0 76 1.020,8
20:03 24,3 2,4 12,1 24,0 1,7 120 - 0,0 77 1.020,7
20:02 24,3 2,4 12,1 24,0 1,3 171 - 0,0 79 1.020,8
20:01 24,3 2,4 12,1 24,0 0,9 72 - 0,0 82 1.020,8
20:00 24,3 2,4 12,1 24,0 1,3 72 - 0,0 84 1.020,7
 
19:59 24,3 2,4 12,1 24,0 1,2 95 - 0,0 86 1.020,8
19:58 24,4 2,4 12,1 24,0 0,7 157 - 0,0 90 1.020,7
19:57 24,4 2,4 12,1 24,0 1,2 256 - 0,0 92 1.020,6
19:56 24,4 2,5 12,1 24,0 1,1 211 - 0,0 94 1.020,6
19:55 24,4 2,5 12,1 24,0 1,1 137 - 0,0 95 1.020,7
19:54 24,4 2,5 12,1 24,0 1,7 98 - 0,0 97 1.020,7
19:53 24,4 2,5 12,1 24,0 1,8 131 - 0,0 102 1.020,7
19:52 24,5 2,5 12,2 24,0 1,0 61 - 0,0 102 1.020,7
19:51 24,5 2,5 12,2 24,0 1,0 215 - 0,0 106 1.020,7
19:50 24,5 2,6 12,2 24,0 1,9 134 - 0,0 109 1.020,6
19:49 24,6 2,6 12,2 24,0 2,0 189 - 0,0 111 1.020,6
19:48 24,6 2,6 12,2 24,0 1,6 116 - 0,0 114 1.020,6
19:47 24,7 2,7 12,3 24,0 1,9 67 - 0,0 116 1.020,7
19:46 24,7 2,7 12,3 24,0 0,9 108 - 0,0 121 1.020,7
19:45 24,7 2,7 12,3 24,0 0,7 221 - 0,0 122 1.020,7
19:44 24,7 2,7 12,3 24,0 0,9 70 - 0,0 124 1.020,7
19:43 24,7 2,7 12,3 24,0 1,4 66 - 0,0 127 1.020,7
19:42 24,7 2,7 12,3 24,0 1,3 155 - 0,0 128 1.020,7
19:41 24,7 2,7 12,3 24,0 1,3 107 - 0,0 132 1.020,7
19:40 24,7 2,7 12,3 24,0 1,3 205 - 0,0 135 1.020,7
19:39 24,7 2,7 12,3 24,0 1,2 188 - 0,0 136 1.020,7
19:38 24,7 2,7 12,3 24,0 0,8 113 - 0,0 140 1.020,8
19:37 24,7 2,7 12,3 24,0 0,3 54 - 0,0 142 1.020,7
19:36 24,7 2,8 12,3 24,0 0,1 255 - 0,0 145 1.020,7
19:35 24,8 2,8 12,3 24,0 0,6 113 - 0,0 148 1.020,7
19:34 24,7 2,3 12,2 23,3 1,2 134 - 0,0 153 1.020,7
19:33 24,8 2,2 12,1 23,0 0,8 168 - 0,0 154 1.020,7
19:32 24,8 2,2 12,1 23,0 0,9 32 - 0,0 156 1.020,7
19:31 24,8 2,4 12,2 23,4 1,4 129 - 0,0 156 1.020,7
19:30 24,8 2,8 12,3 24,0 1,8 146 - 0,0 161 1.020,8
19:29 24,8 2,4 12,2 23,4 1,4 208 - 0,0 162 1.020,7
19:28 24,8 2,2 12,1 23,0 0,9 103 - 0,0 163 1.020,7
19:27 24,8 2,7 12,3 23,9 1,5 53 - 0,0 162 1.020,7
19:26 24,7 2,2 12,1 23,0 1,2 38 - 0,0 168 1.020,7
19:25 24,8 2,2 12,1 23,0 0,5 125 - 0,0 169 1.020,7
19:24 24,8 2,2 12,1 23,0 1,1 205 - 0,0 172 1.020,7
19:23 24,8 2,2 12,1 23,0 1,7 197 - 0,0 178 1.020,7
19:22 24,8 2,2 12,2 23,0 2,0 176 - 0,0 180 1.020,7
19:21 24,8 2,2 12,2 23,0 2,1 237 - 0,0 184 1.020,8
19:20 24,8 2,2 12,2 23,0 1,9 176 - 0,0 185 1.020,7
19:19 24,9 2,3 12,2 23,0 1,8 160 - 0,0 189 1.020,7
19:18 24,9 2,3 12,2 23,0 1,7 227 - 0,0 190 1.020,7
19:17 24,9 2,3 12,2 23,0 1,8 169 - 0,0 195 1.020,7
19:16 24,9 2,3 12,2 23,0 2,2 134 - 0,0 197 1.020,7
19:15 24,9 2,3 12,2 23,0 2,4 165 - 0,0 201 1.020,8
19:14 25,0 2,3 12,2 23,0 2,1 149 - 0,0 201 1.020,8
19:13 24,9 2,3 12,2 23,0 1,9 95 - 0,0 205 1.020,7
19:12 24,9 2,3 12,2 23,0 1,8 124 - 0,0 206 1.020,7
19:11 24,9 2,3 12,2 23,0 2,0 155 - 0,0 209 1.020,7
19:10 25,0 2,4 12,2 23,0 2,0 152 - 0,0 212 1.020,8
19:09 25,0 2,4 12,3 23,0 0,5 98 - 0,0 214 1.020,7
19:08 25,0 2,4 12,2 23,0 0,1 290 - 0,0 215 1.020,7
19:07 25,0 2,4 12,2 23,0 1,1 122 - 0,0 218 1.020,7
19:06 25,0 2,4 12,2 23,0 2,6 107 - 0,0 218 1.020,7
19:05 25,0 2,3 12,2 23,0 2,3 110 - 0,0 223 1.020,8
19:04 24,9 2,3 12,2 23,0 1,6 84 - 0,0 224 1.020,8
19:03 24,9 2,3 12,2 23,0 0,9 179 - 0,0 226 1.020,8
19:02 24,9 2,3 12,2 23,0 0,6 33 - 0,0 228 1.020,8
19:01 24,9 2,3 12,2 23,0 0,8 174 - 0,0 230 1.020,8
19:00 24,9 2,3 12,2 23,0 1,1 217 - 0,0 234 1.020,8
 
18:59 24,9 2,3 12,2 23,0 0,9 72 - 0,0 234 1.020,8
18:58 24,9 2,3 12,2 23,0 1,2 141 - 0,0 238 1.020,8
18:57 24,9 2,3 12,2 23,0 1,7 197 - 0,0 242 1.020,8
18:56 24,9 2,3 12,2 23,0 2,1 123 - 0,0 245 1.020,8
18:54 24,9 2,3 12,2 23,0 2,1 111 - 0,0 248 1.020,7
18:53 25,0 2,3 12,2 23,0 1,7 24 - 0,0 250 1.020,8
18:52 25,0 2,3 12,2 23,0 0,7 102 - 0,0 252 1.020,8
18:51 25,0 2,3 12,2 23,0 1,5 217 - 0,0 254 1.020,8
18:50 24,9 2,3 12,2 23,0 2,1 138 - 0,0 256 1.020,8
18:49 25,0 2,3 12,2 23,0 2,4 168 - 0,0 257 1.020,8
18:48 25,0 2,3 12,2 23,0 1,4 114 - 0,0 260 1.020,8
18:47 24,9 2,3 12,2 23,0 1,6 19 - 0,0 264 1.020,8
18:46 25,0 2,4 12,2 23,0 1,6 105 - 0,0 265 1.020,8
18:45 25,0 2,4 12,2 23,0 1,8 130 - 0,0 266 1.020,8
18:44 25,0 2,4 12,2 23,0 1,8 56 - 0,0 268 1.020,8
18:43 25,0 2,4 12,3 23,0 2,0 128 - 0,0 272 1.020,8
18:42 25,0 2,4 12,2 23,0 1,6 48 - 0,0 273 1.020,8
18:41 25,0 2,4 12,3 23,0 1,3 172 - 0,0 277 1.020,9
18:40 25,0 2,4 12,2 23,0 1,9 136 - 0,0 278 1.020,9
18:39 24,9 2,3 12,2 23,0 1,9 172 - 0,0 281 1.020,9
18:38 24,9 2,3 12,2 23,0 1,6 188 - 0,0 283 1.020,9
18:37 24,9 2,3 12,2 23,0 1,4 105 - 0,0 285 1.020,9
18:36 24,9 2,3 12,2 23,0 1,7 124 - 0,0 288 1.020,9
18:35 24,9 2,3 12,2 23,0 2,2 66 - 0,0 291 1.020,9
18:34 24,9 1,7 12,0 22,1 2,3 108 - 0,0 293 1.020,9
18:33 24,9 1,7 12,0 22,0 2,3 164 - 0,0 295 1.020,9
18:32 24,9 1,9 12,1 22,4 2,4 165 - 0,0 298 1.021,0
18:31 24,9 2,3 12,2 23,0 2,5 143 - 0,0 301 1.021,0
18:30 24,9 1,9 12,0 22,3 1,7 123 - 0,0 302 1.021,0
18:29 24,9 1,7 12,0 22,0 1,3 18 - 0,0 303 1.021,0
18:28 24,9 1,7 12,0 22,0 1,3 136 - 0,0 307 1.021,0
18:27 24,9 1,7 12,0 22,0 1,3 56 - 0,0 309 1.021,0
18:26 24,9 1,7 12,0 22,0 1,8 165 - 0,0 312 1.021,0
18:25 24,9 1,7 12,0 22,0 2,0 88 - 0,0 313 1.021,0
18:24 24,9 1,7 12,0 22,0 1,1 46 - 0,0 317 1.021,0
18:23 24,9 1,7 12,0 22,0 1,0 215 - 0,0 321 1.021,0
18:22 24,9 1,7 12,0 22,0 2,3 101 - 0,0 323 1.020,9
18:21 24,9 1,7 12,0 22,0 2,7 99 - 0,0 324 1.020,9
18:20 24,9 1,7 12,0 22,0 2,6 184 - 0,0 327 1.021,0
18:19 24,9 1,7 12,0 22,0 3,3 173 - 0,0 327 1.021,0
18:18 24,9 1,7 12,0 22,0 2,7 193 - 0,0 330 1.021,0
18:17 25,0 1,7 12,0 22,0 2,8 101 - 0,0 332 1.021,0
18:16 24,9 1,7 12,0 22,0 2,8 152 - 0,0 333 1.021,1
18:15 25,0 1,7 12,0 22,0 1,5 62 - 0,0 335 1.021,0
18:14 24,9 1,7 12,0 22,0 1,1 213 - 0,0 338 1.021,1
18:13 24,9 1,7 12,0 22,0 1,3 113 - 0,0 341 1.021,2
18:12 24,9 1,7 12,0 22,0 1,9 74 - 0,0 344 1.021,2
18:11 24,9 1,7 12,0 22,1 1,9 130 - 0,0 346 1.021,2
18:10 24,9 2,2 12,2 22,8 2,1 141 - 0,0 348 1.021,2
18:09 24,9 1,9 12,1 22,4 2,1 89 - 0,0 351 1.021,2
18:08 24,9 2,3 12,2 23,0 1,2 83 - 0,0 353 1.021,2
18:07 24,9 1,9 12,1 22,4 0,8 260 - 0,0 353 1.021,2
18:06 24,9 2,2 12,2 22,8 1,0 232 - 0,0 356 1.021,2
18:05 24,9 1,8 12,0 22,1 1,6 99 - 0,0 358 1.021,2
18:04 24,9 1,7 12,0 22,0 2,7 150 - 0,0 360 1.021,2
18:03 24,9 1,9 12,1 22,4 3,3 170 - 0,0 363 1.021,1
18:02 24,9 2,3 12,2 23,0 3,0 178 - 0,0 364 1.021,2
18:01 24,9 2,3 12,2 23,0 2,2 156 - 0,0 367 1.021,3
18:00 24,9 2,3 12,2 23,0 2,0 114 - 0,0 370 1.021,3
 
17:59 24,9 2,3 12,2 23,0 1,7 143 - 0,0 373 1.021,2
17:58 24,9 2,3 12,2 23,0 1,2 41 - 0,0 375 1.021,2
17:57 24,9 2,3 12,2 23,0 0,5 171 - 0,0 377 1.021,3
17:56 24,9 2,3 12,2 23,0 1,5 251 - 0,0 380 1.021,3
17:55 24,9 2,3 12,2 23,0 0,7 209 - 0,0 381 1.021,3
17:54 24,9 2,3 12,2 23,0 0,4 26 - 0,0 383 1.021,3
17:53 24,9 1,8 12,0 22,2 1,2 180 - 0,0 384 1.021,3
17:52 24,9 2,1 12,1 22,8 2,3 103 - 0,0 386 1.021,3
17:51 24,9 1,9 12,1 22,4 2,1 124 - 0,0 389 1.021,3
17:50 24,9 2,3 12,2 23,0 1,5 200 - 0,0 392 1.021,3
17:49 24,9 2,3 12,2 23,0 1,4 74 - 0,0 394 1.021,2
17:48 24,9 2,3 12,2 23,0 2,0 132 - 0,0 396 1.021,3
17:47 24,9 2,3 12,2 23,0 2,2 80 - 0,0 398 1.021,3
17:46 24,8 2,2 12,2 23,0 1,4 75 - 0,0 401 1.021,2
17:45 24,8 2,2 12,2 23,0 0,5 217 - 0,0 403 1.021,2
17:44 24,8 2,2 12,1 23,0 0,4 274 - 0,0 406 1.021,3
17:43 24,8 2,2 12,1 23,0 1,2 74 - 0,0 407 1.021,3
17:42 24,8 2,2 12,1 23,0 1,1 60 - 0,0 410 1.021,3
17:41 24,8 2,2 12,1 23,0 0,6 227 - 0,0 412 1.021,3
17:40 24,7 2,1 12,1 23,0 1,3 119 - 0,0 414 1.021,3
17:39 24,7 2,1 12,1 23,0 1,8 113 - 0,0 417 1.021,3
17:38 24,7 2,1 12,1 23,0 1,5 182 - 0,0 418 1.021,3
17:37 24,7 2,1 12,1 23,0 1,7 259 - 0,0 420 1.021,3
17:36 24,7 2,1 12,1 23,0 0,6 228 - 0,0 423 1.021,4
17:35 24,7 2,2 12,1 23,0 0,7 61 - 0,0 425 1.021,4
17:34 24,7 2,2 12,1 23,0 1,5 329 - 0,0 425 1.021,4
17:33 24,7 2,2 12,1 23,0 1,6 77 - 0,0 430 1.021,4
17:32 24,7 1,8 12,0 22,4 2,4 103 - 0,0 431 1.021,4
17:31 24,7 1,5 11,9 22,0 2,8 42 - 0,0 433 1.021,3
17:30 24,8 2,1 12,1 22,9 2,8 93 - 0,0 436 1.021,3
17:29 24,8 2,2 12,1 23,0 3,1 142 - 0,0 437 1.021,3
17:28 24,8 2,2 12,1 23,0 2,8 100 - 0,0 439 1.021,3
17:27 24,8 2,2 12,1 23,0 2,6 84 - 0,0 442 1.021,3
17:26 24,7 2,2 12,1 23,0 1,5 153 - 0,0 445 1.021,3
17:25 24,7 2,2 12,1 23,0 1,6 243 - 0,0 445 1.021,5
17:24 24,7 2,1 12,1 23,0 1,1 121 - 0,0 447 1.021,5
17:23 24,7 2,1 12,1 23,0 1,3 262 - 0,0 449 1.021,5
17:22 24,7 2,1 12,1 23,0 1,7 190 - 0,0 451 1.021,6
17:21 24,7 2,1 12,1 23,0 1,2 143 - 0,0 454 1.021,6
17:20 24,7 2,1 12,1 23,0 1,4 23 - 0,0 455 1.021,6
17:19 24,7 2,1 12,1 23,0 0,8 96 - 0,0 456 1.021,6
17:18 24,7 2,1 12,1 23,0 0,6 259 - 0,0 458 1.021,6
17:17 24,7 2,1 12,1 23,0 0,5 249 - 0,0 460 1.021,6
17:16 24,6 2,1 12,1 23,0 0,9 82 - 0,0 462 1.021,6
17:15 24,6 2,1 12,0 23,0 1,8 184 - 0,0 462 1.021,6
17:14 24,6 2,1 12,0 23,0 2,3 177 - 0,0 462 1.021,5
17:13 24,6 2,1 12,1 23,0 2,5 109 - 0,0 468 1.021,4
17:12 24,6 2,1 12,1 23,0 2,7 102 - 0,0 470 1.021,5
17:11 24,6 2,1 12,1 23,0 2,6 156 - 0,0 470 1.021,5
17:10 24,7 2,1 12,1 23,0 2,8 156 - 0,0 472 1.021,5
17:09 24,7 2,1 12,1 23,0 1,9 182 - 0,0 475 1.021,6
17:08 24,7 2,1 12,1 23,0 2,0 66 - 0,0 476 1.021,6
17:07 24,7 2,1 12,1 23,0 2,6 111 - 0,0 479 1.021,6
17:06 24,7 2,2 12,1 23,1 3,3 180 9,8 0,0 480 1.021,7
17:05 24,7 2,7 12,3 24,0 2,4 110 - 0,0 482 1.021,8
17:04 24,7 2,7 12,3 24,0 2,0 41 - 0,0 483 1.021,7
17:03 24,7 2,7 12,3 24,0 0,9 184 - 0,0 485 1.021,8
17:02 24,6 2,6 12,2 24,0 2,1 199 - 0,0 485 1.021,9
17:01 24,6 2,6 12,2 24,0 1,0 151 - 0,0 487 1.022,0
17:00 24,6 2,6 12,2 24,0 1,1 11 - 0,0 489 1.022,0
 
16:59 24,5 2,6 12,2 24,0 1,2 23 - 0,0 490 1.022,0
16:58 24,5 2,3 12,1 23,5 1,0 160 - 0,0 492 1.022,0
16:57 24,5 2,0 12,0 23,0 1,5 168 - 0,0 494 1.021,9
16:56 24,5 2,0 12,0 23,0 1,9 59 - 0,0 496 1.021,9
16:55 24,5 2,4 12,1 23,9 2,3 126 - 0,0 498 1.021,9
16:54 24,4 2,4 12,1 23,8 1,9 124 - 0,0 500 1.022,0
16:53 24,4 1,9 11,9 23,0 1,1 217 - 0,0 498 1.022,1
16:52 24,4 1,9 11,9 23,0 1,8 243 - 0,0 502 1.022,0
16:51 24,4 1,9 11,9 23,0 2,7 207 - 0,0 504 1.022,0
16:50 24,4 1,9 11,9 23,0 4,2 198 - 0,0 505 1.021,9
16:49 24,5 1,9 11,9 23,0 2,3 122 - 0,0 507 1.022,0
16:48 24,5 1,9 11,9 23,0 2,1 124 - 0,0 508 1.022,1
16:47 24,5 1,9 12,0 23,0 2,7 321 - 0,0 511 1.022,0
16:46 24,5 1,9 12,0 23,0 3,7 136 - 0,0 513 1.022,0
16:45 24,5 2,0 12,0 23,0 2,6 216 - 0,0 514 1.022,1
16:44 24,5 2,0 12,0 23,0 2,5 57 - 0,0 517 1.022,1
16:43 24,5 1,9 12,0 23,0 2,8 99 - 0,0 518 1.022,2
16:42 24,5 2,1 12,0 23,3 3,6 334 - 0,0 520 1.022,1
16:41 24,5 2,5 12,2 24,0 3,5 73 - 0,0 521 1.022,1
16:40 24,5 2,2 12,0 23,5 2,0 143 - 0,0 522 1.022,2
16:39 24,4 1,9 11,9 23,0 2,3 119 - 0,0 520 1.022,2
16:38 24,4 1,9 11,9 23,0 2,3 72 - 0,0 503 1.022,1
16:37 24,4 1,9 11,9 23,0 2,4 9 - 0,0 514 1.022,2